Wetterdaten: Freitag, 31.12.2021
Datum Zeit Temp. Aussen Temp. o. S. Temp +5cm Feuchte Auss Luftdruck Regen Sonnenschein Regendauer Solar Windben Empfang
31.12.2021 00:00 13,3 C 12,8 C 10,6 C 96 % 1019,4 hPa 0,0 l/m 0 min 0 min 0 W/m 16,1 km/h (3 Bft) 100,00 %
31.12.2021 00:02 13,3 C 12,8 C 10,6 C 96 % 1019,4 hPa 0,0 l/m 0 min 0 min 0 W/m 19,3 km/h (3 Bft) 100,00 %
31.12.2021 00:04 13,3 C 12,8 C 10,6 C 96 % 1019,4 hPa 0,0 l/m 0 min 0 min 0 W/m 22,5 km/h (4 Bft) 100,00 %
31.12.2021 00:08 13,3 C 12,8 C 10,6 C 96 % 1019,4 hPa 0,0 l/m 0 min 0 min 0 W/m 22,5 km/h (4 Bft) 100,00 %
31.12.2021 00:10 13,3 C 12,8 C 10,6 C 96 % 1019,4 hPa 0,0 l/m 0 min 0 min 0 W/m 19,3 km/h (3 Bft) 100,00 %
31.12.2021 00:12 13,3 C 12,8 C 10,6 C 96 % 1019,4 hPa 0,0 l/m 0 min 0 min 0 W/m 22,5 km/h (4 Bft) 100,00 %
31.12.2021 00:14 13,3 C 12,8 C 10,6 C 95 % 1019,5 hPa 0,0 l/m 0 min 0 min 0 W/m 25,7 km/h (4 Bft) 100,00 %
31.12.2021 00:16 13,3 C 12,8 C 10,6 C 95 % 1019,4 hPa 0,0 l/m 0 min 0 min 0 W/m 19,3 km/h (3 Bft) 100,00 %
31.12.2021 00:18 13,3 C 12,8 C 10,6 C 95 % 1019,5 hPa 0,0 l/m 0 min 0 min 0 W/m 12,9 km/h (3 Bft) 100,00 %
31.12.2021 00:20 13,3 C 12,8 C 10,6 C 95 % 1019,5 hPa 0,0 l/m 0 min 0 min 0 W/m 16,1 km/h (3 Bft) 100,00 %
31.12.2021 00:22 13,3 C 12,8 C 10,6 C 95 % 1019,4 hPa 0,0 l/m 0 min 0 min 0 W/m 29,0 km/h (5 Bft) 97,83 %
31.12.2021 00:24 13,3 C 12,8 C 10,6 C 95 % 1019,5 hPa 0,0 l/m 0 min 0 min 0 W/m 25,7 km/h (4 Bft) 100,00 %
31.12.2021 00:26 13,3 C 12,8 C 10,6 C 95 % 1019,4 hPa 0,0 l/m 0 min 0 min 0 W/m 29,0 km/h (5 Bft) 100,00 %
31.12.2021 00:28 13,3 C 12,8 C 10,6 C 95 % 1019,3 hPa 0,0 l/m 0 min 0 min 0 W/m 25,7 km/h (4 Bft) 95,74 %
31.12.2021 00:30 13,3 C 12,8 C 10,6 C 95 % 1019,4 hPa 0,0 l/m 0 min 0 min 0 W/m 16,1 km/h (3 Bft) 97,87 %
31.12.2021 00:32 13,3 C 12,8 C 11,1 C 95 % 1019,3 hPa 0,0 l/m 0 min 0 min 0 W/m 22,5 km/h (4 Bft) 97,87 %
31.12.2021 00:34 13,3 C 12,8 C 11,1 C 95 % 1019,4 hPa 0,0 l/m 0 min 0 min 0 W/m 35,4 km/h (5 Bft) 97,83 %
31.12.2021 00:36 13,3 C 12,8 C 11,1 C 95 % 1019,4 hPa 0,0 l/m 0 min 0 min 0 W/m 25,7 km/h (4 Bft) 91,49 %
31.12.2021 00:38 13,3 C 12,8 C 11,1 C 95 % 1019,3 hPa 0,0 l/m 0 min 0 min 0 W/m 19,3 km/h (3 Bft) 95,74 %
31.12.2021 00:40 13,3 C 12,8 C 11,1 C 95 % 1019,3 hPa 0,0 l/m 0 min 0 min 0 W/m 22,5 km/h (4 Bft) 95,74 %
31.12.2021 00:42 13,3 C 12,8 C 11,1 C 95 % 1019,3 hPa 0,0 l/m 0 min 0 min 0 W/m 19,3 km/h (3 Bft) 95,74 %
31.12.2021 00:44 13,3 C 12,8 C 11,1 C 95 % 1019,4 hPa 0,0 l/m 0 min 0 min 0 W/m 19,3 km/h (3 Bft) 57,45 %
31.12.2021 00:46 13,3 C 12,8 C 11,1 C 95 % 1019,3 hPa 0,0 l/m 0 min 0 min 0 W/m 19,3 km/h (3 Bft) 95,65 %
31.12.2021 00:48 13,3 C 12,8 C 11,1 C 95 % 1019,3 hPa 0,0 l/m 0 min 0 min 0 W/m 25,7 km/h (4 Bft) 93,62 %
31.12.2021 00:50 13,4 C 12,8 C 11,1 C 95 % 1019,2 hPa 0,0 l/m 0 min 0 min 0 W/m 25,7 km/h (4 Bft) 91,49 %
31.12.2021 00:52 13,4 C 12,8 C 11,1 C 95 % 1019,3 hPa 0,0 l/m 0 min 0 min 0 W/m 25,7 km/h (4 Bft) 91,49 %
31.12.2021 00:54 13,4 C 12,8 C 11,1 C 95 % 1019,2 hPa 0,0 l/m 0 min 0 min 0 W/m 25,7 km/h (4 Bft) 91,49 %
31.12.2021 00:56 13,4 C 12,8 C 11,1 C 94 % 1019,3 hPa 0,0 l/m 0 min 0 min 0 W/m 22,5 km/h (4 Bft) 93,62 %
31.12.2021 00:58 13,4 C 12,8 C 11,1 C 94 % 1019,3 hPa 0,0 l/m 0 min 0 min 0 W/m 16,1 km/h (3 Bft) 93,48 %
31.12.2021 01:00 13,4 C 12,8 C 11,1 C 94 % 1019,3 hPa 0,0 l/m 0 min 0 min 0 W/m 19,3 km/h (3 Bft) 95,74 %
31.12.2021 01:02 13,4 C 12,8 C 11,1 C 94 % 1019,2 hPa 0,0 l/m 0 min 0 min 0 W/m 12,9 km/h (3 Bft) 93,62 %
31.12.2021 01:04 13,4 C 12,8 C 11,1 C 94 % 1019,2 hPa 0,0 l/m 0 min 0 min 0 W/m 19,3 km/h (3 Bft) 93,62 %
31.12.2021 01:06 13,4 C 12,8 C 11,1 C 94 % 1019,2 hPa 0,0 l/m 0 min 0 min 0 W/m 29,0 km/h (5 Bft) 91,49 %
31.12.2021 01:08 13,5 C 12,8 C 11,1 C 94 % 1019,2 hPa 0,0 l/m 0 min 0 min 0 W/m 22,5 km/h (4 Bft) 93,62 %
31.12.2021 01:10 13,5 C 12,8 C 11,1 C 94 % 1019,2 hPa 0,0 l/m 0 min 0 min 0 W/m 25,7 km/h (4 Bft) 91,49 %
31.12.2021 01:12 13,5 C 12,8 C 11,1 C 93 % 1019,3 hPa 0,0 l/m 0 min 0 min 0 W/m 25,7 km/h (4 Bft) 93,48 %
31.12.2021 01:14 13,6 C 12,8 C 11,1 C 93 % 1019,2 hPa 0,0 l/m 0 min 0 min 0 W/m 16,1 km/h (3 Bft) 93,62 %
31.12.2021 01:16 13,6 C 12,8 C 11,1 C 93 % 1019,2 hPa 0,0 l/m 0 min 0 min 0 W/m 22,5 km/h (4 Bft) 95,74 %
31.12.2021 01:18 13,6 C 12,8 C 11,1 C 93 % 1019,2 hPa 0,0 l/m 0 min 0 min 0 W/m 29,0 km/h (5 Bft) 97,87 %
31.12.2021 01:20 13,6 C 12,8 C 11,1 C 93 % 1019,1 hPa 0,0 l/m 0 min 0 min 0 W/m 29,0 km/h (5 Bft) 97,87 %
31.12.2021 01:22 13,6 C 12,8 C 11,1 C 93 % 1019,2 hPa 0,0 l/m 0 min 0 min 0 W/m 19,3 km/h (3 Bft) 97,83 %
31.12.2021 01:24 13,6 C 12,8 C 11,1 C 93 % 1019,2 hPa 0,0 l/m 0 min 0 min 0 W/m 19,3 km/h (3 Bft) 93,62 %
31.12.2021 01:26 13,6 C 12,8 C 11,1 C 93 % 1019,1 hPa 0,0 l/m 0 min 0 min 0 W/m 12,9 km/h (3 Bft) 97,87 %
31.12.2021 01:28 13,6 C 12,8 C 11,1 C 93 % 1019,1 hPa 0,0 l/m 0 min 0 min 0 W/m 16,1 km/h (3 Bft) 97,87 %
31.12.2021 01:30 13,6 C 12,8 C 11,1 C 92 % 1019,1 hPa 0,0 l/m 0 min 0 min 0 W/m 19,3 km/h (3 Bft) 97,87 %
31.12.2021 01:32 13,6 C 12,8 C 11,1 C 92 % 1019,1 hPa 0,0 l/m 0 min 0 min 0 W/m 25,7 km/h (4 Bft) 91,49 %
31.12.2021 01:34 13,6 C 12,8 C 11,1 C 92 % 1019,1 hPa 0,0 l/m 0 min 0 min 0 W/m 16,1 km/h (3 Bft) 97,83 %
31.12.2021 01:36 13,6 C 12,8 C 11,1 C 92 % 1019,1 hPa 0,0 l/m 0 min 0 min 0 W/m 22,5 km/h (4 Bft) 97,87 %
31.12.2021 01:38 13,6 C 12,8 C 11,1 C 92 % 1019,1 hPa 0,0 l/m 0 min 0 min 0 W/m 22,5 km/h (4 Bft) 100,00 %
31.12.2021 01:40 13,7 C 12,8 C 11,1 C 92 % 1019,1 hPa 0,0 l/m 0 min 0 min 0 W/m 25,7 km/h (4 Bft) 100,00 %
31.12.2021 01:42 13,7 C 12,8 C 11,1 C 92 % 1019,1 hPa 0,0 l/m 0 min 0 min 0 W/m 16,1 km/h (3 Bft) 100,00 %
31.12.2021 01:44 13,7 C 12,8 C 11,1 C 91 % 1019,1 hPa 0,0 l/m 0 min 0 min 0 W/m 22,5 km/h (4 Bft) 100,00 %
31.12.2021 01:46 13,7 C 12,8 C 11,1 C 91 % 1019,1 hPa 0,0 l/m 0 min 0 min 0 W/m 12,9 km/h (3 Bft) 100,00 %
31.12.2021 01:48 13,7 C 12,8 C 11,1 C 91 % 1019,0 hPa 0,0 l/m 0 min 0 min 0 W/m 25,7 km/h (4 Bft) 100,00 %
31.12.2021 01:50 13,7 C 12,8 C 11,1 C 91 % 1019,0 hPa 0,0 l/m 0 min 0 min 0 W/m 25,7 km/h (4 Bft) 100,00 %
31.12.2021 01:52 13,7 C 12,8 C 11,1 C 91 % 1019,0 hPa 0,0 l/m 0 min 0 min 0 W/m 22,5 km/h (4 Bft) 100,00 %
31.12.2021 01:54 13,7 C 12,8 C 11,1 C 91 % 1019,1 hPa 0,0 l/m 0 min 0 min 0 W/m 22,5 km/h (4 Bft) 100,00 %
31.12.2021 01:56 13,7 C 12,8 C 11,1 C 91 % 1019,1 hPa 0,0 l/m 0 min 0 min 0 W/m 29,0 km/h (5 Bft) 100,00 %
31.12.2021 01:58 13,7 C 12,8 C 11,1 C 91 % 1019,0 hPa 0,0 l/m 0 min 0 min 0 W/m 19,3 km/h (3 Bft) 100,00 %
31.12.2021 02:00 13,7 C 12,8 C 11,1 C 91 % 1019,1 hPa 0,0 l/m 0 min 0 min 0 W/m 29,0 km/h (5 Bft) 100,00 %
31.12.2021 02:02 13,7 C 12,8 C 11,1 C 91 % 1019,1 hPa 0,0 l/m 0 min 0 min 0 W/m 29,0 km/h (5 Bft) 97,83 %
31.12.2021 02:04 13,8 C 12,8 C 11,1 C 90 % 1019,1 hPa 0,0 l/m 0 min 0 min 0 W/m 19,3 km/h (3 Bft) 95,74 %
31.12.2021 02:06 13,8 C 12,8 C 11,1 C 90 % 1019,1 hPa 0,0 l/m 0 min 0 min 0 W/m 19,3 km/h (3 Bft) 100,00 %
31.12.2021 02:08 13,7 C 12,8 C 11,1 C 90 % 1019,1 hPa 0,0 l/m 0 min 0 min 0 W/m 22,5 km/h (4 Bft) 100,00 %
31.12.2021 02:10 13,8 C 13,3 C 11,1 C 90 % 1019,1 hPa 0,0 l/m 0 min 0 min 0 W/m 25,7 km/h (4 Bft) 100,00 %
31.12.2021 02:12 13,8 C 12,8 C 11,1 C 90 % 1019,1 hPa 0,0 l/m 0 min 0 min 0 W/m 16,1 km/h (3 Bft) 100,00 %
31.12.2021 02:14 13,8 C 12,8 C 11,1 C 90 % 1019,1 hPa 0,0 l/m 0 min 0 min 0 W/m 25,7 km/h (4 Bft) 100,00 %
31.12.2021 02:16 13,8 C 12,8 C 11,1 C 90 % 1019,1 hPa 0,0 l/m 0 min 0 min 0 W/m 19,3 km/h (3 Bft) 100,00 %
31.12.2021 02:18 13,8 C 12,8 C 11,1 C 90 % 1019,1 hPa 0,0 l/m 0 min 0 min 0 W/m 22,5 km/h (4 Bft) 97,87 %
31.12.2021 02:20 13,8 C 12,8 C 11,1 C 90 % 1019,1 hPa 0,0 l/m 0 min 0 min 0 W/m 19,3 km/h (3 Bft) 100,00 %
31.12.2021 02:22 13,8 C 13,3 C 11,1 C 90 % 1019,2 hPa 0,0 l/m 0 min 0 min 0 W/m 19,3 km/h (3 Bft) 100,00 %
31.12.2021 02:24 13,8 C 13,3 C 11,1 C 89 % 1019,1 hPa 0,0 l/m 0 min 0 min 0 W/m 19,3 km/h (3 Bft) 100,00 %
31.12.2021 02:26 13,8 C 12,8 C 11,1 C 89 % 1019,1 hPa 0,0 l/m 0 min 0 min 0 W/m 16,1 km/h (3 Bft) 100,00 %
31.12.2021 02:28 13,8 C 12,8 C 11,1 C 89 % 1019,1 hPa 0,0 l/m 0 min 0 min 0 W/m 16,1 km/h (3 Bft) 97,87 %
31.12.2021 02:30 13,8 C 12,8 C 11,1 C 89 % 1019,1 hPa 0,0 l/m 0 min 0 min 0 W/m 16,1 km/h (3 Bft) 100,00 %
31.12.2021 02:32 13,8 C 12,8 C 11,1 C 89 % 1019,1 hPa 0,0 l/m 0 min 0 min 0 W/m 19,3 km/h (3 Bft) 97,87 %
31.12.2021 02:34 13,8 C 12,8 C 11,1 C 89 % 1019,2 hPa 0,0 l/m 0 min 0 min 0 W/m 19,3 km/h (3 Bft) 100,00 %
31.12.2021 02:36 13,8 C 13,3 C 11,1 C 89 % 1019,2 hPa 0,0 l/m 0 min 0 min 0 W/m 22,5 km/h (4 Bft) 100,00 %
31.12.2021 02:38 13,8 C 13,3 C 11,1 C 89 % 1019,2 hPa 0,0 l/m 0 min 0 min 0 W/m 25,7 km/h (4 Bft) 97,87 %
31.12.2021 02:40 13,8 C 13,3 C 11,1 C 89 % 1019,1 hPa 0,0 l/m 0 min 0 min 0 W/m 29,0 km/h (5 Bft) 97,87 %
31.12.2021 02:42 13,8 C 13,3 C 11,1 C 89 % 1019,1 hPa 0,0 l/m 0 min 0 min 0 W/m 22,5 km/h (4 Bft) 95,74 %
31.12.2021 02:44 13,9 C 13,3 C 11,1 C 89 % 1019,1 hPa 0,0 l/m 0 min 0 min 0 W/m 19,3 km/h (3 Bft) 97,83 %
31.12.2021 02:46 13,9 C 13,3 C 11,1 C 88 % 1019,1 hPa 0,0 l/m 0 min 0 min 0 W/m 29,0 km/h (5 Bft) 97,87 %
31.12.2021 02:48 13,9 C 13,3 C 11,1 C 88 % 1019,1 hPa 0,0 l/m 0 min 0 min 0 W/m 16,1 km/h (3 Bft) 97,87 %
31.12.2021 02:50 13,9 C 13,3 C 11,1 C 88 % 1019,1 hPa 0,0 l/m 0 min 0 min 0 W/m 16,1 km/h (3 Bft) 97,87 %
31.12.2021 02:52 13,9 C 13,3 C 11,1 C 88 % 1019,1 hPa 0,0 l/m 0 min 0 min 0 W/m 12,9 km/h (3 Bft) 97,87 %
31.12.2021 02:54 13,9 C 13,3 C 11,1 C 88 % 1019,1 hPa 0,0 l/m 0 min 0 min 0 W/m 19,3 km/h (3 Bft) 97,87 %
31.12.2021 02:56 13,9 C 13,3 C 11,1 C 88 % 1019,1 hPa 0,0 l/m 0 min 0 min 0 W/m 16,1 km/h (3 Bft) 97,83 %
31.12.2021 02:58 13,9 C 13,3 C 11,1 C 88 % 1019,2 hPa 0,0 l/m 0 min 0 min 0 W/m 16,1 km/h (3 Bft) 97,87 %
31.12.2021 03:00 13,9 C 13,3 C 11,1 C 88 % 1019,2 hPa 0,0 l/m 0 min 0 min 0 W/m 19,3 km/h (3 Bft) 97,87 %
31.12.2021 03:02 13,9 C 13,3 C 11,1 C 88 % 1019,2 hPa 0,0 l/m 0 min 0 min 0 W/m 9,7 km/h (2 Bft) 100,00 %
31.12.2021 03:04 13,9 C 13,3 C 11,1 C 88 % 1019,3 hPa 0,0 l/m 0 min 0 min 0 W/m 12,9 km/h (3 Bft) 97,87 %
31.12.2021 03:06 13,9 C 13,3 C 11,1 C 88 % 1019,3 hPa 0,0 l/m 0 min 0 min 0 W/m 22,5 km/h (4 Bft) 97,87 %
31.12.2021 03:08 13,9 C 13,3 C 11,1 C 88 % 1019,3 hPa 0,0 l/m 0 min 0 min 0 W/m 16,1 km/h (3 Bft) 97,83 %
31.12.2021 03:10 13,9 C 12,8 C 11,1 C 88 % 1019,3 hPa 0,0 l/m 0 min 0 min 0 W/m 19,3 km/h (3 Bft) 97,87 %
31.12.2021 03:12 13,9 C 13,3 C 11,1 C 88 % 1019,2 hPa 0,0 l/m 0 min 0 min 0 W/m 19,3 km/h (3 Bft) 100,00 %
31.12.2021 03:14 13,9 C 12,8 C 11,1 C 88 % 1019,2 hPa 0,0 l/m 0 min 0 min 0 W/m 16,1 km/h (3 Bft) 100,00 %
31.12.2021 03:16 13,9 C 12,8 C 11,1 C 88 % 1019,1 hPa 0,0 l/m 0 min 0 min 0 W/m 22,5 km/h (4 Bft) 100,00 %
31.12.2021 03:18 13,8 C 12,8 C 11,1 C 88 % 1019,2 hPa 0,0 l/m 0 min 0 min 0 W/m 22,5 km/h (4 Bft) 100,00 %
31.12.2021 03:20 13,8 C 12,8 C 11,1 C 88 % 1019,1 hPa 0,0 l/m 0 min 0 min 0 W/m 16,1 km/h (3 Bft) 97,83 %
31.12.2021 03:22 13,8 C 12,8 C 11,1 C 88 % 1019,2 hPa 0,0 l/m 0 min 0 min 0 W/m 19,3 km/h (3 Bft) 95,74 %
31.12.2021 03:24 13,8 C 12,8 C 11,1 C 88 % 1019,2 hPa 0,0 l/m 0 min 0 min 0 W/m 25,7 km/h (4 Bft) 97,87 %
31.12.2021 03:26 13,8 C 12,8 C 11,1 C 88 % 1019,2 hPa 0,0 l/m 0 min 0 min 0 W/m 22,5 km/h (4 Bft) 97,87 %
31.12.2021 03:28 13,8 C 12,8 C 10,6 C 88 % 1019,2 hPa 0,0 l/m 0 min 0 min 0 W/m 19,3 km/h (3 Bft) 97,87 %
31.12.2021 03:30 13,8 C 12,8 C 10,6 C 88 % 1019,2 hPa 0,0 l/m 0 min 0 min 0 W/m 9,7 km/h (2 Bft) 95,74 %
31.12.2021 03:32 13,8 C 12,8 C 10,6 C 88 % 1019,1 hPa 0,0 l/m 0 min 0 min 0 W/m 19,3 km/h (3 Bft) 97,22 %
31.12.2021 03:34 13,8 C 12,8 C 10,6 C 88 % 1019,2 hPa 0,0 l/m 0 min 0 min 0 W/m 19,3 km/h (3 Bft) 95,74 %
31.12.2021 03:36 13,8 C 12,8 C 10,6 C 89 % 1019,2 hPa 0,0 l/m 0 min 0 min 0 W/m 19,3 km/h (3 Bft) 97,87 %
31.12.2021 03:38 13,8 C 12,8 C 10,6 C 89 % 1019,3 hPa 0,0 l/m 0 min 0 min 0 W/m 16,1 km/h (3 Bft) 95,74 %
31.12.2021 03:40 13,8 C 12,8 C 10,6 C 88 % 1019,2 hPa 0,0 l/m 0 min 0 min 0 W/m 12,9 km/h (3 Bft) 95,65 %
31.12.2021 03:42 13,8 C 12,8 C 10,6 C 88 % 1019,2 hPa 0,0 l/m 0 min 0 min 0 W/m 19,3 km/h (3 Bft) 95,74 %
31.12.2021 03:44 13,8 C 12,8 C 10,6 C 88 % 1019,2 hPa 0,0 l/m 0 min 0 min 0 W/m 22,5 km/h (4 Bft) 95,74 %
31.12.2021 03:46 13,8 C 12,8 C 10,6 C 88 % 1019,1 hPa 0,0 l/m 0 min 0 min 0 W/m 16,1 km/h (3 Bft) 95,74 %
31.12.2021 03:48 13,8 C 12,8 C 10,6 C 88 % 1019,1 hPa 0,0 l/m 0 min 0 min 0 W/m 16,1 km/h (3 Bft) 95,74 %
31.12.2021 03:50 13,8 C 12,8 C 10,6 C 88 % 1019,0 hPa 0,0 l/m 0 min 0 min 0 W/m 16,1 km/h (3 Bft) 95,74 %
31.12.2021 03:52 13,8 C 12,8 C 10,6 C 88 % 1019,1 hPa 0,0 l/m 0 min 0 min 0 W/m 16,1 km/h (3 Bft) 93,48 %
31.12.2021 03:54 13,8 C 12,8 C 10,6 C 89 % 1019,1 hPa 0,0 l/m 0 min 0 min 0 W/m 16,1 km/h (3 Bft) 95,74 %
31.12.2021 03:56 13,8 C 12,8 C 10,6 C 89 % 1019,1 hPa 0,0 l/m 0 min 0 min 0 W/m 22,5 km/h (4 Bft) 95,74 %
31.12.2021 03:58 13,8 C 12,8 C 10,6 C 88 % 1019,1 hPa 0,0 l/m 0 min 0 min 0 W/m 12,9 km/h (3 Bft) 95,74 %
31.12.2021 04:00 13,7 C 12,8 C 10,6 C 88 % 1019,1 hPa 0,0 l/m 0 min 0 min 0 W/m 9,7 km/h (2 Bft) 95,74 %
31.12.2021 04:02 13,7 C 12,8 C 10,6 C 88 % 1019,1 hPa 0,0 l/m 0 min 0 min 0 W/m 19,3 km/h (3 Bft) 100,00 %
31.12.2021 04:04 13,8 C 12,8 C 10,6 C 88 % 1019,1 hPa 0,0 l/m 0 min 0 min 0 W/m 25,7 km/h (4 Bft) 95,74 %
31.12.2021 04:06 13,8 C 12,8 C 10,6 C 88 % 1019,0 hPa 0,0 l/m 0 min 0 min 0 W/m 19,3 km/h (3 Bft) 95,74 %
31.12.2021 04:08 13,8 C 12,8 C 10,6 C 88 % 1019,0 hPa 0,0 l/m 0 min 0 min 0 W/m 32,2 km/h (5 Bft) 97,87 %
31.12.2021 04:10 13,8 C 12,8 C 10,6 C 88 % 1019,0 hPa 0,0 l/m 0 min 0 min 0 W/m 16,1 km/h (3 Bft) 97,87 %
31.12.2021 04:12 13,8 C 12,8 C 10,6 C 88 % 1019,1 hPa 0,0 l/m 0 min 0 min 0 W/m 19,3 km/h (3 Bft) 95,74 %
31.12.2021 04:14 13,8 C 12,8 C 10,6 C 88 % 1019,0 hPa 0,0 l/m 0 min 0 min 0 W/m 12,9 km/h (3 Bft) 95,74 %
31.12.2021 04:16 13,8 C 12,8 C 10,6 C 88 % 1019,1 hPa 0,0 l/m 0 min 0 min 0 W/m 16,1 km/h (3 Bft) 97,83 %
31.12.2021 04:18 13,8 C 12,8 C 10,6 C 88 % 1019,1 hPa 0,0 l/m 0 min 0 min 0 W/m 19,3 km/h (3 Bft) 95,74 %
31.12.2021 04:20 13,8 C 12,8 C 10,6 C 88 % 1019,2 hPa 0,0 l/m 0 min 0 min 0 W/m 22,5 km/h (4 Bft) 95,74 %
31.12.2021 04:22 13,8 C 12,8 C 10,6 C 88 % 1019,1 hPa 0,0 l/m 0 min 0 min 0 W/m 16,1 km/h (3 Bft) 97,87 %
31.12.2021 04:24 13,8 C 12,8 C 10,6 C 88 % 1019,0 hPa 0,0 l/m 0 min 0 min 0 W/m 16,1 km/h (3 Bft) 97,87 %
31.12.2021 04:26 13,8 C 12,8 C 10,6 C 88 % 1019,0 hPa 0,0 l/m 0 min 0 min 0 W/m 19,3 km/h (3 Bft) 95,74 %
31.12.2021 04:28 13,8 C 12,8 C 10,6 C 88 % 1019,0 hPa 0,0 l/m 0 min 0 min 0 W/m 16,1 km/h (3 Bft) 97,83 %
31.12.2021 04:30 13,8 C 12,8 C 10,6 C 88 % 1019,0 hPa 0,0 l/m 0 min 0 min 0 W/m 22,5 km/h (4 Bft) 100,00 %
31.12.2021 04:32 13,8 C 12,8 C 10,6 C 88 % 1019,0 hPa 0,0 l/m 0 min 0 min 0 W/m 16,1 km/h (3 Bft) 100,00 %
31.12.2021 04:34 13,8 C 12,8 C 10,6 C 88 % 1019,0 hPa 0,0 l/m 0 min 0 min 0 W/m 19,3 km/h (3 Bft) 100,00 %
31.12.2021 04:36 13,8 C 12,8 C 10,6 C 88 % 1019,0 hPa 0,0 l/m 0 min 0 min 0 W/m 22,5 km/h (4 Bft) 95,74 %
31.12.2021 04:38 13,8 C 12,8 C 10,6 C 88 % 1018,9 hPa 0,0 l/m 0 min 0 min 0 W/m 16,1 km/h (3 Bft) 97,87 %
31.12.2021 04:40 13,8 C 12,8 C 10,6 C 88 % 1018,8 hPa 0,0 l/m 0 min 0 min 0 W/m 19,3 km/h (3 Bft) 97,83 %
31.12.2021 04:42 13,8 C 12,8 C 10,6 C 88 % 1018,9 hPa 0,0 l/m 0 min 0 min 0 W/m 19,3 km/h (3 Bft) 97,87 %
31.12.2021 04:44 13,8 C 12,8 C 10,6 C 88 % 1018,9 hPa 0,0 l/m 0 min 0 min 0 W/m 9,7 km/h (2 Bft) 97,87 %
31.12.2021 04:46 13,8 C 12,8 C 10,6 C 88 % 1018,8 hPa 0,0 l/m 0 min 0 min 0 W/m 22,5 km/h (4 Bft) 97,87 %
31.12.2021 04:48 13,8 C 12,8 C 10,6 C 88 % 1018,8 hPa 0,0 l/m 0 min 0 min 0 W/m 22,5 km/h (4 Bft) 95,74 %
31.12.2021 04:50 13,8 C 12,8 C 10,6 C 88 % 1018,8 hPa 0,0 l/m 0 min 0 min 0 W/m 19,3 km/h (3 Bft) 97,87 %
31.12.2021 04:52 13,7 C 12,8 C 10,6 C 88 % 1018,8 hPa 0,0 l/m 0 min 0 min 0 W/m 16,1 km/h (3 Bft) 97,83 %
31.12.2021 04:54 13,7 C 12,8 C 10,6 C 88 % 1018,9 hPa 0,0 l/m 0 min 0 min 0 W/m 19,3 km/h (3 Bft) 97,87 %
31.12.2021 04:56 13,7 C 12,8 C 10,6 C 88 % 1018,8 hPa 0,0 l/m 0 min 0 min 0 W/m 12,9 km/h (3 Bft) 95,74 %
31.12.2021 04:58 13,7 C 12,8 C 10,6 C 88 % 1018,7 hPa 0,0 l/m 0 min 0 min 0 W/m 19,3 km/h (3 Bft) 97,87 %
31.12.2021 05:00 13,7 C 12,8 C 10,6 C 88 % 1018,7 hPa 0,0 l/m 0 min 0 min 0 W/m 12,9 km/h (3 Bft) 97,87 %
31.12.2021 05:02 13,7 C 12,8 C 10,6 C 88 % 1018,7 hPa 0,0 l/m 0 min 0 min 0 W/m 12,9 km/h (3 Bft) 97,83 %
31.12.2021 05:04 13,7 C 12,8 C 10,6 C 88 % 1018,7 hPa 0,0 l/m 0 min 0 min 0 W/m 19,3 km/h (3 Bft) 97,87 %
31.12.2021 05:06 13,7 C 12,8 C 10,6 C 88 % 1018,7 hPa 0,0 l/m 0 min 0 min 0 W/m 12,9 km/h (3 Bft) 97,87 %
31.12.2021 05:08 13,6 C 12,8 C 10,6 C 88 % 1018,8 hPa 0,0 l/m 0 min 0 min 0 W/m 12,9 km/h (3 Bft) 95,74 %
31.12.2021 05:10 13,6 C 12,8 C 10,6 C 88 % 1018,8 hPa 0,0 l/m 0 min 0 min 0 W/m 9,7 km/h (2 Bft) 95,74 %
31.12.2021 05:12 13,6 C 12,8 C 10,6 C 88 % 1018,8 hPa 0,0 l/m 0 min 0 min 0 W/m 12,9 km/h (3 Bft) 97,87 %
31.12.2021 05:14 13,6 C 12,8 C 10,6 C 88 % 1018,9 hPa 0,0 l/m 0 min 0 min 0 W/m 16,1 km/h (3 Bft) 100,00 %
31.12.2021 05:16 13,6 C 12,8 C 10,0 C 88 % 1018,9 hPa 0,0 l/m 0 min 0 min 0 W/m 16,1 km/h (3 Bft) 100,00 %
31.12.2021 05:18 13,5 C 12,8 C 10,0 C 88 % 1018,8 hPa 0,0 l/m 0 min 0 min 0 W/m 19,3 km/h (3 Bft) 100,00 %
31.12.2021 05:20 13,5 C 12,8 C 10,0 C 89 % 1018,9 hPa 0,0 l/m 0 min 0 min 0 W/m 12,9 km/h (3 Bft) 100,00 %
31.12.2021 05:22 13,5 C 12,8 C 10,0 C 89 % 1018,9 hPa 0,0 l/m 0 min 0 min 0 W/m 12,9 km/h (3 Bft) 100,00 %
31.12.2021 05:24 13,5 C 12,8 C 10,0 C 89 % 1018,8 hPa 0,0 l/m 0 min 0 min 0 W/m 12,9 km/h (3 Bft) 100,00 %
31.12.2021 05:26 13,4 C 12,8 C 10,0 C 89 % 1018,8 hPa 0,0 l/m 0 min 0 min 0 W/m 12,9 km/h (3 Bft) 100,00 %
31.12.2021 05:28 13,4 C 12,8 C 10,0 C 89 % 1018,7 hPa 0,0 l/m 0 min 0 min 0 W/m 25,7 km/h (4 Bft) 100,00 %
31.12.2021 05:30 13,4 C 12,8 C 10,0 C 89 % 1018,8 hPa 0,0 l/m 0 min 0 min 0 W/m 16,1 km/h (3 Bft) 100,00 %
31.12.2021 05:32 13,4 C 12,8 C 10,0 C 89 % 1018,7 hPa 0,0 l/m 0 min 0 min 0 W/m 22,5 km/h (4 Bft) 95,74 %
31.12.2021 05:34 13,4 C 12,8 C 10,0 C 89 % 1018,7 hPa 0,0 l/m 0 min 0 min 0 W/m 16,1 km/h (3 Bft) 100,00 %
31.12.2021 05:36 13,4 C 12,8 C 10,0 C 89 % 1018,7 hPa 0,0 l/m 0 min 0 min 0 W/m 12,9 km/h (3 Bft) 100,00 %
31.12.2021 05:38 13,4 C 12,8 C 10,0 C 89 % 1018,7 hPa 0,0 l/m 0 min 0 min 0 W/m 16,1 km/h (3 Bft) 100,00 %
31.12.2021 05:40 13,3 C 12,2 C 10,0 C 89 % 1018,7 hPa 0,0 l/m 0 min 0 min 0 W/m 22,5 km/h (4 Bft) 100,00 %
31.12.2021 05:42 13,3 C 12,2 C 10,0 C 89 % 1018,7 hPa 0,0 l/m 0 min 0 min 0 W/m 9,7 km/h (2 Bft) 100,00 %
31.12.2021 05:44 13,3 C 12,2 C 10,0 C 89 % 1018,8 hPa 0,0 l/m 0 min 0 min 0 W/m 12,9 km/h (3 Bft) 100,00 %
31.12.2021 05:46 13,3 C 12,2 C 10,0 C 89 % 1018,7 hPa 0,0 l/m 0 min 0 min 0 W/m 16,1 km/h (3 Bft) 100,00 %
31.12.2021 05:48 13,3 C 12,2 C 10,0 C 89 % 1018,7 hPa 0,0 l/m 0 min 0 min 0 W/m 16,1 km/h (3 Bft) 100,00 %
31.12.2021 05:50 13,3 C 12,2 C 10,0 C 89 % 1018,7 hPa 0,0 l/m 0 min 0 min 0 W/m 16,1 km/h (3 Bft) 100,00 %
31.12.2021 05:52 13,3 C 12,2 C 10,0 C 89 % 1018,7 hPa 0,0 l/m 0 min 0 min 0 W/m 12,9 km/h (3 Bft) 100,00 %
31.12.2021 05:54 13,3 C 12,2 C 10,0 C 89 % 1018,8 hPa 0,0 l/m 0 min 0 min 0 W/m 19,3 km/h (3 Bft) 100,00 %
31.12.2021 05:56 13,3 C 12,2 C 10,0 C 89 % 1018,8 hPa 0,0 l/m 0 min 0 min 0 W/m 12,9 km/h (3 Bft) 97,87 %
31.12.2021 05:58 13,3 C 12,2 C 10,0 C 89 % 1018,8 hPa 0,0 l/m 0 min 0 min 0 W/m 16,1 km/h (3 Bft) 100,00 %
31.12.2021 06:00 13,2 C 12,2 C 10,0 C 89 % 1018,8 hPa 0,0 l/m 0 min 0 min 0 W/m 12,9 km/h (3 Bft) 100,00 %
31.12.2021 06:02 13,2 C 12,2 C 10,0 C 89 % 1018,9 hPa 0,0 l/m 0 min 0 min 0 W/m 12,9 km/h (3 Bft) 100,00 %
31.12.2021 06:04 13,2 C 12,2 C 10,0 C 89 % 1018,8 hPa 0,0 l/m 0 min 0 min 0 W/m 12,9 km/h (3 Bft) 100,00 %
31.12.2021 06:08 13,2 C 12,2 C 10,0 C 89 % 1018,8 hPa 0,0 l/m 0 min 0 min 0 W/m 16,1 km/h (3 Bft) 97,89 %
31.12.2021 06:10 13,2 C 12,2 C 10,0 C 89 % 1018,9 hPa 0,0 l/m 0 min 0 min 0 W/m 12,9 km/h (3 Bft) 95,74 %
31.12.2021 06:12 13,2 C 12,2 C 10,0 C 89 % 1018,9 hPa 0,0 l/m 0 min 0 min 0 W/m 12,9 km/h (3 Bft) 97,87 %
31.12.2021 06:14 13,2 C 12,2 C 10,0 C 89 % 1018,9 hPa 0,0 l/m 0 min 0 min 0 W/m 16,1 km/h (3 Bft) 95,65 %
31.12.2021 06:16 13,2 C 12,2 C 10,0 C 89 % 1018,9 hPa 0,0 l/m 0 min 0 min 0 W/m 12,9 km/h (3 Bft) 97,87 %
31.12.2021 06:18 13,2 C 12,2 C 10,0 C 89 % 1018,9 hPa 0,0 l/m 0 min 0 min 0 W/m 12,9 km/h (3 Bft) 95,74 %
31.12.2021 06:20 13,2 C 12,2 C 10,0 C 89 % 1018,9 hPa 0,0 l/m 0 min 0 min 0 W/m 19,3 km/h (3 Bft) 97,87 %
31.12.2021 06:22 13,2 C 12,2 C 10,0 C 89 % 1018,8 hPa 0,0 l/m 0 min 0 min 0 W/m 16,1 km/h (3 Bft) 95,74 %
31.12.2021 06:24 13,2 C 12,2 C 10,0 C 89 % 1018,7 hPa 0,0 l/m 0 min 0 min 0 W/m 16,1 km/h (3 Bft) 95,74 %
31.12.2021 06:26 13,2 C 12,2 C 10,0 C 89 % 1018,7 hPa 0,0 l/m 0 min 0 min 0 W/m 19,3 km/h (3 Bft) 95,65 %
31.12.2021 06:28 13,2 C 12,2 C 10,0 C 89 % 1018,8 hPa 0,0 l/m 0 min 0 min 0 W/m 25,7 km/h (4 Bft) 93,62 %
31.12.2021 06:30 13,2 C 12,2 C 10,0 C 89 % 1018,7 hPa 0,0 l/m 0 min 0 min 0 W/m 19,3 km/h (3 Bft) 95,74 %
31.12.2021 06:32 13,1 C 12,2 C 10,0 C 89 % 1018,7 hPa 0,0 l/m 0 min 0 min 0 W/m 12,9 km/h (3 Bft) 91,49 %
31.12.2021 06:34 13,1 C 12,2 C 10,0 C 89 % 1018,7 hPa 0,0 l/m 0 min 0 min 0 W/m 19,3 km/h (3 Bft) 95,74 %
31.12.2021 06:36 13,1 C 12,2 C 10,0 C 89 % 1018,6 hPa 0,0 l/m 0 min 0 min 0 W/m 16,1 km/h (3 Bft) 95,74 %
31.12.2021 06:38 13,1 C 12,2 C 10,0 C 89 % 1018,7 hPa 0,0 l/m 0 min 0 min 0 W/m 22,5 km/h (4 Bft) 93,48 %
31.12.2021 06:40 13,1 C 12,2 C 10,0 C 89 % 1018,6 hPa 0,0 l/m 0 min 0 min 0 W/m 19,3 km/h (3 Bft) 95,74 %
31.12.2021 06:42 13,1 C 12,2 C 10,0 C 89 % 1018,6 hPa 0,0 l/m 0 min 0 min 0 W/m 25,7 km/h (4 Bft) 95,74 %
31.12.2021 06:44 13,1 C 12,2 C 10,0 C 89 % 1018,6 hPa 0,0 l/m 0 min 0 min 0 W/m 19,3 km/h (3 Bft) 91,49 %
31.12.2021 06:46 13,1 C 12,2 C 10,0 C 89 % 1018,6 hPa 0,0 l/m 0 min 0 min 0 W/m 22,5 km/h (4 Bft) 93,62 %
31.12.2021 06:48 13,1 C 12,2 C 10,0 C 89 % 1018,5 hPa 0,0 l/m 0 min 0 min 0 W/m 19,3 km/h (3 Bft) 91,49 %
31.12.2021 06:50 13,1 C 12,2 C 10,0 C 89 % 1018,5 hPa 0,0 l/m 0 min 0 min 0 W/m 25,7 km/h (4 Bft) 95,65 %
31.12.2021 06:52 13,1 C 12,2 C 10,0 C 89 % 1018,5 hPa 0,0 l/m 0 min 0 min 0 W/m 22,5 km/h (4 Bft) 93,62 %
31.12.2021 06:54 13,1 C 12,2 C 10,0 C 89 % 1018,4 hPa 0,0 l/m 0 min 0 min 0 W/m 22,5 km/h (4 Bft) 93,62 %
31.12.2021 06:56 13,1 C 12,2 C 10,0 C 89 % 1018,4 hPa 0,0 l/m 0 min 0 min 0 W/m 25,7 km/h (4 Bft) 91,49 %
31.12.2021 06:58 13,1 C 12,2 C 10,0 C 89 % 1018,5 hPa 0,0 l/m 0 min 0 min 0 W/m 22,5 km/h (4 Bft) 95,74 %
31.12.2021 07:00 13,1 C 12,2 C 10,0 C 89 % 1018,6 hPa 0,0 l/m 0 min 0 min 0 W/m 29,0 km/h (5 Bft) 95,74 %
31.12.2021 07:02 13,1 C 12,2 C 10,0 C 89 % 1018,5 hPa 0,0 l/m 0 min 0 min 0 W/m 29,0 km/h (5 Bft) 93,48 %
31.12.2021 07:04 13,1 C 12,2 C 10,0 C 89 % 1018,7 hPa 0,0 l/m 0 min 0 min 0 W/m 29,0 km/h (5 Bft) 93,75 %
31.12.2021 07:06 13,1 C 12,2 C 10,0 C 89 % 1018,6 hPa 0,0 l/m 0 min 0 min 0 W/m 22,5 km/h (4 Bft) 95,65 %
31.12.2021 07:08 13,1 C 12,2 C 10,0 C 89 % 1018,6 hPa 0,0 l/m 0 min 0 min 0 W/m 16,1 km/h (3 Bft) 95,74 %
31.12.2021 07:10 13,1 C 12,2 C 10,0 C 89 % 1018,6 hPa 0,0 l/m 0 min 0 min 0 W/m 25,7 km/h (4 Bft) 97,87 %
31.12.2021 07:12 13,1 C 12,2 C 10,0 C 89 % 1018,7 hPa 0,0 l/m 0 min 0 min 0 W/m 16,1 km/h (3 Bft) 97,87 %
31.12.2021 07:14 13,1 C 12,2 C 10,0 C 89 % 1018,7 hPa 0,0 l/m 0 min 0 min 0 W/m 16,1 km/h (3 Bft) 100,00 %
31.12.2021 07:16 13,2 C 12,2 C 10,0 C 89 % 1018,7 hPa 0,0 l/m 0 min 0 min 0 W/m 16,1 km/h (3 Bft) 97,87 %
31.12.2021 07:18 13,1 C 12,2 C 10,0 C 89 % 1018,7 hPa 0,0 l/m 0 min 0 min 0 W/m 19,3 km/h (3 Bft) 100,00 %
31.12.2021 07:20 13,2 C 12,2 C 10,0 C 89 % 1018,6 hPa 0,0 l/m 0 min 0 min 0 W/m 22,5 km/h (4 Bft) 100,00 %
31.12.2021 07:22 13,2 C 12,2 C 10,0 C 89 % 1018,7 hPa 0,0 l/m 0 min 0 min 0 W/m 22,5 km/h (4 Bft) 97,87 %
31.12.2021 07:24 13,2 C 12,2 C 10,0 C 89 % 1018,7 hPa 0,0 l/m 0 min 0 min 0 W/m 22,5 km/h (4 Bft) 100,00 %
31.12.2021 07:26 13,2 C 12,2 C 10,0 C 89 % 1018,6 hPa 0,0 l/m 0 min 0 min 0 W/m 19,3 km/h (3 Bft) 100,00 %
31.12.2021 07:28 13,2 C 12,2 C 10,0 C 89 % 1018,6 hPa 0,0 l/m 0 min 0 min 0 W/m 22,5 km/h (4 Bft) 100,00 %
31.12.2021 07:30 13,2 C 12,2 C 10,0 C 89 % 1018,6 hPa 0,0 l/m 0 min 0 min 0 W/m 29,0 km/h (5 Bft) 97,83 %
31.12.2021 07:32 13,2 C 12,2 C 10,0 C 89 % 1018,6 hPa 0,0 l/m 0 min 0 min 0 W/m 19,3 km/h (3 Bft) 97,87 %
31.12.2021 07:34 13,2 C 12,2 C 10,0 C 89 % 1018,6 hPa 0,0 l/m 0 min 0 min 0 W/m 29,0 km/h (5 Bft) 100,00 %
31.12.2021 07:36 13,2 C 12,2 C 10,0 C 89 % 1018,6 hPa 0,0 l/m 0 min 0 min 0 W/m 19,3 km/h (3 Bft) 100,00 %
31.12.2021 07:38 13,2 C 12,2 C 10,0 C 89 % 1018,6 hPa 0,0 l/m 0 min 0 min 0 W/m 22,5 km/h (4 Bft) 100,00 %
31.12.2021 07:40 13,1 C 12,2 C 10,0 C 89 % 1018,6 hPa 0,0 l/m 0 min 0 min 0 W/m 19,3 km/h (3 Bft) 100,00 %
31.12.2021 07:42 13,1 C 12,2 C 10,0 C 89 % 1018,6 hPa 0,0 l/m 0 min 0 min 0 W/m 19,3 km/h (3 Bft) 100,00 %
31.12.2021 07:44 13,1 C 12,2 C 9,4 C 89 % 1018,5 hPa 0,0 l/m 0 min 0 min 0 W/m 25,7 km/h (4 Bft) 100,00 %
31.12.2021 07:46 13,1 C 12,2 C 10,0 C 89 % 1018,4 hPa 0,0 l/m 0 min 0 min 0 W/m 29,0 km/h (5 Bft) 100,00 %
31.12.2021 07:48 13,1 C 12,2 C 9,4 C 89 % 1018,4 hPa 0,0 l/m 0 min 0 min 0 W/m 22,5 km/h (4 Bft) 100,00 %
31.12.2021 07:50 13,1 C 12,2 C 9,4 C 89 % 1018,5 hPa 0,0 l/m 0 min 0 min 0 W/m 29,0 km/h (5 Bft) 100,00 %
31.12.2021 07:52 13,1 C 12,2 C 9,4 C 89 % 1018,4 hPa 0,0 l/m 0 min 0 min 0 W/m 35,4 km/h (5 Bft) 100,00 %
31.12.2021 07:54 13,0 C 12,2 C 9,4 C 89 % 1018,4 hPa 0,0 l/m 0 min 0 min 0 W/m 22,5 km/h (4 Bft) 97,87 %
31.12.2021 07:56 13,0 C 12,2 C 9,4 C 89 % 1018,4 hPa 0,0 l/m 0 min 0 min 0 W/m 16,1 km/h (3 Bft) 100,00 %
31.12.2021 07:58 12,9 C 12,2 C 9,4 C 89 % 1018,5 hPa 0,0 l/m 0 min 0 min 0 W/m 19,3 km/h (3 Bft) 100,00 %
31.12.2021 08:00 12,9 C 11,7 C 9,4 C 89 % 1018,4 hPa 0,0 l/m 0 min 0 min 0 W/m 12,9 km/h (3 Bft) 97,87 %
31.12.2021 08:02 12,9 C 11,7 C 9,4 C 89 % 1018,4 hPa 0,0 l/m 0 min 0 min 0 W/m 25,7 km/h (4 Bft) 97,87 %
31.12.2021 08:04 12,8 C 11,7 C 9,4 C 89 % 1018,5 hPa 0,0 l/m 0 min 0 min 0 W/m 22,5 km/h (4 Bft) 100,00 %
31.12.2021 08:06 12,8 C 11,7 C 9,4 C 89 % 1018,6 hPa 0,0 l/m 0 min 0 min 0 W/m 19,3 km/h (3 Bft) 97,87 %
31.12.2021 08:08 12,8 C 11,7 C 9,4 C 89 % 1018,5 hPa 0,0 l/m 0 min 0 min 0 W/m 22,5 km/h (4 Bft) 100,00 %
31.12.2021 08:11 12,7 C 11,7 C 9,4 C 89 % 1018,6 hPa 0,0 l/m 0 min 0 min 0 W/m 16,1 km/h (3 Bft) 100,00 %
31.12.2021 08:12 12,7 C 11,7 C 9,4 C 89 % 1018,6 hPa 0,0 l/m 0 min 0 min 0 W/m 19,3 km/h (3 Bft) 100,00 %
31.12.2021 08:14 12,7 C 11,7 C 9,4 C 89 % 1018,6 hPa 0,0 l/m 0 min 0 min 0 W/m 25,7 km/h (4 Bft) 100,00 %
31.12.2021 08:16 12,7 C 11,7 C 9,4 C 89 % 1018,6 hPa 0,0 l/m 0 min 0 min 0 W/m 16,1 km/h (3 Bft) 95,65 %
31.12.2021 08:18 12,6 C 11,7 C 9,4 C 89 % 1018,7 hPa 0,0 l/m 0 min 0 min 0 W/m 25,7 km/h (4 Bft) 100,00 %
31.12.2021 08:20 12,6 C 11,7 C 9,4 C 89 % 1018,6 hPa 0,0 l/m 0 min 0 min 0 W/m 19,3 km/h (3 Bft) 100,00 %
31.12.2021 08:22 12,6 C 11,7 C 9,4 C 89 % 1018,7 hPa 0,0 l/m 0 min 0 min 2 W/m 25,7 km/h (4 Bft) 97,87 %
31.12.2021 08:24 12,5 C 11,7 C 9,4 C 89 % 1018,7 hPa 0,0 l/m 0 min 0 min 6 W/m 22,5 km/h (4 Bft) 100,00 %
31.12.2021 08:26 12,5 C 11,7 C 9,4 C 89 % 1018,7 hPa 0,0 l/m 0 min 0 min 8 W/m 16,1 km/h (3 Bft) 100,00 %
31.12.2021 08:28 12,5 C 11,7 C 9,4 C 89 % 1018,7 hPa 0,0 l/m 0 min 0 min 9 W/m 19,3 km/h (3 Bft) 100,00 %
31.12.2021 08:30 12,4 C 11,7 C 9,4 C 89 % 1018,7 hPa 0,0 l/m 0 min 0 min 10 W/m 16,1 km/h (3 Bft) 97,87 %
31.12.2021 08:32 12,4 C 11,7 C 9,4 C 89 % 1018,7 hPa 0,0 l/m 0 min 0 min 11 W/m 19,3 km/h (3 Bft) 100,00 %
31.12.2021 08:34 12,4 C 11,7 C 9,4 C 89 % 1018,7 hPa 0,0 l/m 0 min 0 min 11 W/m 25,7 km/h (4 Bft) 100,00 %
31.12.2021 08:36 12,4 C 11,7 C 8,9 C 89 % 1018,7 hPa 0,0 l/m 0 min 0 min 11 W/m 12,9 km/h (3 Bft) 95,74 %
31.12.2021 08:38 12,4 C 11,7 C 8,9 C 90 % 1018,6 hPa 0,0 l/m 0 min 0 min 10 W/m 12,9 km/h (3 Bft) 100,00 %
31.12.2021 08:40 12,4 C 11,7 C 8,9 C 90 % 1018,6 hPa 0,0 l/m 0 min 0 min 9 W/m 16,1 km/h (3 Bft) 97,83 %
31.12.2021 08:42 12,3 C 11,7 C 8,9 C 90 % 1018,6 hPa 0,0 l/m 0 min 0 min 9 W/m 16,1 km/h (3 Bft) 97,87 %
31.12.2021 08:44 12,3 C 11,7 C 8,9 C 90 % 1018,7 hPa 0,0 l/m 0 min 0 min 9 W/m 25,7 km/h (4 Bft) 97,87 %
31.12.2021 08:46 12,3 C 11,7 C 8,9 C 90 % 1018,7 hPa 0,0 l/m 0 min 0 min 9 W/m 19,3 km/h (3 Bft) 97,87 %
31.12.2021 08:48 12,3 C 11,7 C 8,9 C 90 % 1018,6 hPa 0,0 l/m 0 min 0 min 9 W/m 12,9 km/h (3 Bft) 95,74 %
31.12.2021 08:50 12,3 C 11,7 C 8,9 C 90 % 1018,7 hPa 0,0 l/m 0 min 0 min 11 W/m 16,1 km/h (3 Bft) 95,74 %
31.12.2021 08:52 12,3 C 11,7 C 8,9 C 90 % 1018,7 hPa 0,0 l/m 0 min 0 min 11 W/m 19,3 km/h (3 Bft) 97,83 %
31.12.2021 08:54 12,3 C 11,7 C 8,9 C 90 % 1018,6 hPa 0,0 l/m 0 min 0 min 12 W/m 16,1 km/h (3 Bft) 95,74 %
31.12.2021 08:56 12,3 C 11,7 C 8,9 C 90 % 1018,6 hPa 0,0 l/m 0 min 0 min 15 W/m 16,1 km/h (3 Bft) 95,74 %
31.12.2021 08:58 12,3 C 11,7 C 8,9 C 90 % 1018,7 hPa 0,0 l/m 0 min 0 min 16 W/m 16,1 km/h (3 Bft) 95,74 %
31.12.2021 09:00 12,3 C 11,7 C 8,9 C 90 % 1018,8 hPa 0,0 l/m 0 min 0 min 18 W/m 12,9 km/h (3 Bft) 93,62 %
31.12.2021 09:02 12,3 C 11,7 C 8,9 C 90 % 1018,8 hPa 0,0 l/m 0 min 0 min 18 W/m 19,3 km/h (3 Bft) 91,49 %
31.12.2021 09:04 12,3 C 11,7 C 8,9 C 90 % 1018,8 hPa 0,0 l/m 0 min 0 min 19 W/m 19,3 km/h (3 Bft) 95,65 %
31.12.2021 09:06 12,3 C 11,7 C 8,9 C 90 % 1018,8 hPa 0,0 l/m 0 min 0 min 19 W/m 19,3 km/h (3 Bft) 91,49 %
31.12.2021 09:08 12,3 C 11,7 C 8,9 C 90 % 1018,8 hPa 0,0 l/m 0 min 0 min 20 W/m 16,1 km/h (3 Bft) 93,62 %
31.12.2021 09:10 12,3 C 11,7 C 8,9 C 90 % 1018,9 hPa 0,0 l/m 0 min 0 min 21 W/m 16,1 km/h (3 Bft) 95,74 %
31.12.2021 09:12 12,3 C 11,7 C 8,9 C 90 % 1018,8 hPa 0,0 l/m 0 min 0 min 23 W/m 25,7 km/h (4 Bft) 95,74 %
31.12.2021 09:14 12,2 C 11,7 C 8,9 C 90 % 1018,9 hPa 0,0 l/m 0 min 0 min 23 W/m 16,1 km/h (3 Bft) 95,74 %
31.12.2021 09:16 12,2 C 11,7 C 8,9 C 90 % 1018,9 hPa 0,0 l/m 0 min 0 min 23 W/m 22,5 km/h (4 Bft) 93,48 %
31.12.2021 09:18 12,2 C 11,7 C 8,9 C 90 % 1018,9 hPa 0,0 l/m 0 min 0 min 24 W/m 16,1 km/h (3 Bft) 95,83 %
31.12.2021 09:20 12,2 C 11,7 C 8,9 C 90 % 1018,8 hPa 0,0 l/m 0 min 0 min 23 W/m 19,3 km/h (3 Bft) 91,49 %
31.12.2021 09:22 12,2 C 11,7 C 8,9 C 90 % 1018,9 hPa 0,0 l/m 0 min 0 min 23 W/m 12,9 km/h (3 Bft) 95,74 %
31.12.2021 09:24 12,2 C 11,7 C 8,9 C 90 % 1018,9 hPa 0,0 l/m 0 min 0 min 23 W/m 19,3 km/h (3 Bft) 95,74 %
31.12.2021 09:26 12,2 C 11,7 C 8,9 C 90 % 1018,9 hPa 0,0 l/m 0 min 0 min 25 W/m 19,3 km/h (3 Bft) 95,74 %
31.12.2021 09:28 12,2 C 11,7 C 8,9 C 90 % 1018,8 hPa 0,0 l/m 0 min 0 min 26 W/m 19,3 km/h (3 Bft) 97,83 %
31.12.2021 09:30 12,2 C 11,7 C 8,9 C 90 % 1018,9 hPa 0,0 l/m 0 min 0 min 26 W/m 19,3 km/h (3 Bft) 95,74 %
31.12.2021 09:32 12,2 C 11,7 C 8,9 C 90 % 1018,8 hPa 0,0 l/m 0 min 0 min 25 W/m 16,1 km/h (3 Bft) 95,74 %
31.12.2021 09:34 12,2 C 11,7 C 8,9 C 90 % 1018,8 hPa 0,0 l/m 0 min 0 min 25 W/m 22,5 km/h (4 Bft) 93,62 %
31.12.2021 09:36 12,2 C 11,7 C 8,9 C 90 % 1018,8 hPa 0,0 l/m 0 min 0 min 25 W/m 22,5 km/h (4 Bft) 95,74 %
31.12.2021 09:38 12,2 C 11,7 C 8,9 C 90 % 1018,8 hPa 0,0 l/m 0 min 0 min 25 W/m 12,9 km/h (3 Bft) 93,62 %
31.12.2021 09:40 12,2 C 11,7 C 8,9 C 90 % 1018,9 hPa 0,0 l/m 0 min 0 min 25 W/m 22,5 km/h (4 Bft) 95,65 %
31.12.2021 09:42 12,2 C 11,7 C 8,9 C 90 % 1019,0 hPa 0,0 l/m 0 min 0 min 25 W/m 19,3 km/h (3 Bft) 97,87 %
31.12.2021 09:44 12,2 C 11,7 C 8,9 C 90 % 1018,9 hPa 0,0 l/m 0 min 0 min 26 W/m 19,3 km/h (3 Bft) 97,87 %
31.12.2021 09:46 12,2 C 11,7 C 8,9 C 90 % 1019,0 hPa 0,0 l/m 0 min 0 min 30 W/m 16,1 km/h (3 Bft) 95,74 %
31.12.2021 09:48 12,2 C 11,7 C 8,9 C 90 % 1019,0 hPa 0,0 l/m 0 min 0 min 33 W/m 12,9 km/h (3 Bft) 97,87 %
31.12.2021 09:50 12,2 C 11,7 C 8,9 C 90 % 1019,1 hPa 0,0 l/m 0 min 0 min 38 W/m 19,3 km/h (3 Bft) 97,83 %
31.12.2021 09:52 12,2 C 11,7 C 8,9 C 90 % 1019,1 hPa 0,0 l/m 0 min 0 min 44 W/m 19,3 km/h (3 Bft) 100,00 %
31.12.2021 09:54 12,2 C 11,7 C 8,9 C 90 % 1019,1 hPa 0,0 l/m 0 min 0 min 49 W/m 19,3 km/h (3 Bft) 97,87 %
31.12.2021 09:56 12,2 C 11,7 C 8,9 C 90 % 1019,0 hPa 0,0 l/m 0 min 0 min 50 W/m 12,9 km/h (3 Bft) 100,00 %
31.12.2021 09:58 12,2 C 11,7 C 8,9 C 90 % 1019,0 hPa 0,0 l/m 0 min 0 min 51 W/m 12,9 km/h (3 Bft) 100,00 %
31.12.2021 10:00 12,2 C 11,7 C 8,9 C 90 % 1019,0 hPa 0,0 l/m 0 min 0 min 53 W/m 22,5 km/h (4 Bft) 100,00 %
31.12.2021 10:02 12,2 C 11,7 C 8,9 C 89 % 1019,0 hPa 0,0 l/m 0 min 0 min 54 W/m 6,4 km/h (2 Bft) 100,00 %
31.12.2021 10:04 12,2 C 11,7 C 8,9 C 89 % 1019,0 hPa 0,0 l/m 0 min 0 min 53 W/m 12,9 km/h (3 Bft) 100,00 %
31.12.2021 10:06 12,2 C 11,7 C 8,9 C 89 % 1019,1 hPa 0,0 l/m 0 min 0 min 51 W/m 12,9 km/h (3 Bft) 100,00 %
31.12.2021 10:08 12,2 C 11,7 C 8,9 C 89 % 1019,0 hPa 0,0 l/m 0 min 0 min 52 W/m 19,3 km/h (3 Bft) 100,00 %
31.12.2021 10:10 12,2 C 11,7 C 8,9 C 89 % 1019,1 hPa 0,0 l/m 0 min 0 min 57 W/m 22,5 km/h (4 Bft) 100,00 %
31.12.2021 10:12 12,2 C 11,7 C 8,9 C 89 % 1019,1 hPa 0,0 l/m 0 min 0 min 64 W/m 12,9 km/h (3 Bft) 100,00 %
31.12.2021 10:14 12,2 C 11,7 C 9,4 C 90 % 1019,1 hPa 0,0 l/m 0 min 0 min 76 W/m 12,9 km/h (3 Bft) 100,00 %
31.12.2021 10:16 12,2 C 12,2 C 9,4 C 90 % 1019,2 hPa 0,0 l/m 0 min 0 min 87 W/m 9,7 km/h (2 Bft) 95,74 %
31.12.2021 10:18 12,2 C 12,2 C 9,4 C 90 % 1019,3 hPa 0,0 l/m 0 min 0 min 88 W/m 9,7 km/h (2 Bft) 100,00 %
31.12.2021 10:20 12,3 C 12,2 C 9,4 C 90 % 1019,3 hPa 0,0 l/m 0 min 0 min 87 W/m 6,4 km/h (2 Bft) 100,00 %
31.12.2021 10:22 12,3 C 12,2 C 9,4 C 90 % 1019,3 hPa 0,0 l/m 0 min 0 min 89 W/m 6,4 km/h (2 Bft) 100,00 %
31.12.2021 10:24 12,3 C 12,2 C 9,4 C 89 % 1019,2 hPa 0,0 l/m 0 min 0 min 90 W/m 9,7 km/h (2 Bft) 100,00 %
31.12.2021 10:26 12,3 C 12,2 C 9,4 C 89 % 1019,2 hPa 0,0 l/m 0 min 0 min 84 W/m 9,7 km/h (2 Bft) 97,83 %
31.12.2021 10:28 12,3 C 12,2 C 9,4 C 89 % 1019,1 hPa 0,0 l/m 0 min 0 min 76 W/m 12,9 km/h (3 Bft) 100,00 %
31.12.2021 10:30 12,3 C 12,2 C 9,4 C 89 % 1019,1 hPa 0,0 l/m 0 min 0 min 70 W/m 12,9 km/h (3 Bft) 100,00 %
31.12.2021 10:32 12,3 C 12,2 C 9,4 C 89 % 1019,1 hPa 0,0 l/m 0 min 0 min 67 W/m 12,9 km/h (3 Bft) 97,87 %
31.12.2021 10:34 12,4 C 12,2 C 9,4 C 89 % 1019,2 hPa 0,0 l/m 0 min 0 min 66 W/m 9,7 km/h (2 Bft) 97,87 %
31.12.2021 10:36 12,4 C 12,2 C 9,4 C 89 % 1019,2 hPa 0,0 l/m 0 min 0 min 69 W/m 9,7 km/h (2 Bft) 97,87 %
31.12.2021 10:38 12,4 C 12,2 C 9,4 C 89 % 1019,1 hPa 0,0 l/m 0 min 0 min 71 W/m 9,7 km/h (2 Bft) 95,65 %
31.12.2021 10:40 12,4 C 12,2 C 9,4 C 89 % 1019,1 hPa 0,0 l/m 0 min 0 min 72 W/m 19,3 km/h (3 Bft) 97,87 %
31.12.2021 10:42 12,4 C 12,2 C 9,4 C 89 % 1019,1 hPa 0,0 l/m 0 min 0 min 72 W/m 12,9 km/h (3 Bft) 97,87 %
31.12.2021 10:44 12,4 C 12,2 C 9,4 C 89 % 1019,2 hPa 0,0 l/m 0 min 0 min 70 W/m 12,9 km/h (3 Bft) 97,87 %
31.12.2021 10:46 12,4 C 12,2 C 9,4 C 89 % 1019,2 hPa 0,0 l/m 0 min 0 min 73 W/m 12,9 km/h (3 Bft) 97,87 %
31.12.2021 10:48 12,5 C 12,2 C 9,4 C 89 % 1019,2 hPa 0,0 l/m 0 min 0 min 75 W/m 16,1 km/h (3 Bft) 97,87 %
31.12.2021 10:50 12,5 C 12,2 C 9,4 C 89 % 1019,2 hPa 0,0 l/m 0 min 0 min 80 W/m 19,3 km/h (3 Bft) 97,83 %
31.12.2021 10:52 12,5 C 12,2 C 9,4 C 89 % 1019,1 hPa 0,0 l/m 0 min 0 min 84 W/m 16,1 km/h (3 Bft) 97,87 %
31.12.2021 10:54 12,5 C 12,2 C 9,4 C 89 % 1019,0 hPa 0,0 l/m 0 min 0 min 87 W/m 16,1 km/h (3 Bft) 97,87 %
31.12.2021 10:56 12,6 C 12,2 C 9,4 C 89 % 1019,1 hPa 0,0 l/m 0 min 0 min 90 W/m 12,9 km/h (3 Bft) 95,74 %
31.12.2021 10:58 12,6 C 12,2 C 9,4 C 89 % 1019,0 hPa 0,0 l/m 0 min 0 min 89 W/m 16,1 km/h (3 Bft) 97,87 %
31.12.2021 11:00 12,6 C 12,2 C 9,4 C 88 % 1019,0 hPa 0,0 l/m 0 min 0 min 86 W/m 19,3 km/h (3 Bft) 97,87 %
31.12.2021 11:02 12,6 C 12,8 C 9,4 C 88 % 1019,0 hPa 0,0 l/m 0 min 0 min 83 W/m 9,7 km/h (2 Bft) 97,83 %
31.12.2021 11:04 12,7 C 12,8 C 9,4 C 88 % 1019,0 hPa 0,0 l/m 0 min 0 min 83 W/m 16,1 km/h (3 Bft) 95,74 %
31.12.2021 11:06 12,7 C 12,8 C 9,4 C 88 % 1019,0 hPa 0,0 l/m 0 min 0 min 85 W/m 12,9 km/h (3 Bft) 97,87 %
31.12.2021 11:08 12,7 C 12,8 C 9,4 C 88 % 1019,0 hPa 0,0 l/m 0 min 0 min 89 W/m 16,1 km/h (3 Bft) 97,87 %
31.12.2021 11:10 12,7 C 12,8 C 10,0 C 88 % 1019,1 hPa 0,0 l/m 0 min 0 min 94 W/m 12,9 km/h (3 Bft) 97,87 %
31.12.2021 11:12 12,8 C 12,8 C 10,0 C 88 % 1019,2 hPa 0,0 l/m 0 min 0 min 108 W/m 12,9 km/h (3 Bft) 100,00 %
31.12.2021 11:14 12,8 C 12,8 C 10,0 C 88 % 1019,1 hPa 0,0 l/m 0 min 0 min 123 W/m 12,9 km/h (3 Bft) 100,00 %
31.12.2021 11:16 12,8 C 12,8 C 10,0 C 88 % 1019,2 hPa 0,0 l/m 0 min 0 min 114 W/m 19,3 km/h (3 Bft) 97,87 %
31.12.2021 11:18 12,9 C 12,8 C 10,0 C 88 % 1019,3 hPa 0,0 l/m 0 min 0 min 106 W/m 16,1 km/h (3 Bft) 100,00 %
31.12.2021 11:20 12,9 C 12,8 C 10,0 C 87 % 1019,4 hPa 0,0 l/m 0 min 0 min 94 W/m 19,3 km/h (3 Bft) 100,00 %
31.12.2021 11:22 12,9 C 12,8 C 10,0 C 87 % 1019,3 hPa 0,0 l/m 0 min 0 min 86 W/m 19,3 km/h (3 Bft) 100,00 %
31.12.2021 11:24 12,9 C 12,8 C 10,0 C 87 % 1019,3 hPa 0,0 l/m 0 min 0 min 84 W/m 9,7 km/h (2 Bft) 100,00 %
31.12.2021 11:26 13,0 C 12,8 C 10,0 C 87 % 1019,2 hPa 0,0 l/m 0 min 0 min 87 W/m 19,3 km/h (3 Bft) 97,87 %
31.12.2021 11:28 13,0 C 12,8 C 10,0 C 87 % 1019,2 hPa 0,0 l/m 0 min 0 min 80 W/m 12,9 km/h (3 Bft) 100,00 %
31.12.2021 11:30 13,1 C 12,8 C 10,0 C 87 % 1019,2 hPa 0,0 l/m 0 min 0 min 78 W/m 22,5 km/h (4 Bft) 100,00 %
31.12.2021 11:32 13,1 C 12,8 C 10,0 C 87 % 1019,1 hPa 0,0 l/m 0 min 0 min 83 W/m 19,3 km/h (3 Bft) 97,87 %
31.12.2021 11:34 13,1 C 12,8 C 10,0 C 86 % 1019,1 hPa 0,0 l/m 0 min 0 min 90 W/m 16,1 km/h (3 Bft) 100,00 %
31.12.2021 11:36 13,1 C 12,8 C 10,0 C 86 % 1019,1 hPa 0,0 l/m 0 min 0 min 96 W/m 29,0 km/h (5 Bft) 97,83 %
31.12.2021 11:38 13,1 C 12,8 C 10,0 C 86 % 1019,1 hPa 0,0 l/m 0 min 0 min 98 W/m 19,3 km/h (3 Bft) 100,00 %
31.12.2021 11:40 13,2 C 12,8 C 10,0 C 86 % 1019,1 hPa 0,0 l/m 0 min 0 min 103 W/m 19,3 km/h (3 Bft) 97,87 %
31.12.2021 11:42 13,2 C 12,8 C 10,0 C 86 % 1019,1 hPa 0,0 l/m 0 min 0 min 110 W/m 16,1 km/h (3 Bft) 97,92 %
31.12.2021 11:44 13,2 C 12,8 C 10,0 C 86 % 1019,1 hPa 0,0 l/m 0 min 0 min 115 W/m 19,3 km/h (3 Bft) 97,87 %
31.12.2021 11:46 13,3 C 12,8 C 10,0 C 86 % 1018,9 hPa 0,0 l/m 0 min 0 min 113 W/m 22,5 km/h (4 Bft) 97,87 %
31.12.2021 11:48 13,3 C 12,8 C 10,0 C 86 % 1018,9 hPa 0,0 l/m 0 min 0 min 102 W/m 19,3 km/h (3 Bft) 95,74 %
31.12.2021 11:50 13,3 C 12,8 C 10,0 C 85 % 1018,8 hPa 0,0 l/m 0 min 0 min 82 W/m 32,2 km/h (5 Bft) 97,87 %
31.12.2021 11:52 13,3 C 12,8 C 10,0 C 85 % 1018,8 hPa 0,0 l/m 0 min 0 min 66 W/m 25,7 km/h (4 Bft) 97,87 %
31.12.2021 11:54 13,4 C 12,8 C 10,0 C 85 % 1018,9 hPa 0,0 l/m 0 min 0 min 57 W/m 25,7 km/h (4 Bft) 97,87 %
31.12.2021 11:56 13,4 C 12,8 C 10,0 C 85 % 1018,8 hPa 0,0 l/m 0 min 0 min 52 W/m 19,3 km/h (3 Bft) 93,48 %
31.12.2021 11:58 13,4 C 12,8 C 10,0 C 85 % 1018,6 hPa 0,0 l/m 0 min 0 min 44 W/m 22,5 km/h (4 Bft) 95,74 %
31.12.2021 12:00 13,4 C 12,8 C 10,0 C 85 % 1018,4 hPa 0,0 l/m 0 min 0 min 42 W/m 29,0 km/h (5 Bft) 95,74 %
31.12.2021 12:02 13,4 C 12,8 C 10,0 C 85 % 1018,5 hPa 0,0 l/m 0 min 0 min 45 W/m 25,7 km/h (4 Bft) 95,74 %
31.12.2021 12:04 13,4 C 12,8 C 10,0 C 85 % 1018,5 hPa 0,0 l/m 0 min 0 min 45 W/m 25,7 km/h (4 Bft) 95,74 %
31.12.2021 12:06 13,4 C 12,8 C 10,0 C 85 % 1018,5 hPa 0,0 l/m 0 min 0 min 41 W/m 16,1 km/h (3 Bft) 95,74 %
31.12.2021 12:08 13,3 C 12,8 C 10,0 C 85 % 1018,5 hPa 0,0 l/m 0 min 0 min 40 W/m 22,5 km/h (4 Bft) 95,65 %
31.12.2021 12:10 13,3 C 12,8 C 10,0 C 85 % 1018,4 hPa 0,0 l/m 0 min 0 min 41 W/m 19,3 km/h (3 Bft) 95,74 %
31.12.2021 12:12 13,3 C 12,8 C 10,0 C 85 % 1018,4 hPa 0,0 l/m 0 min 0 min 44 W/m 16,1 km/h (3 Bft) 93,62 %
31.12.2021 12:14 13,3 C 12,8 C 10,0 C 85 % 1018,5 hPa 0,0 l/m 0 min 0 min 44 W/m 12,9 km/h (3 Bft) 95,74 %
31.12.2021 12:16 13,3 C 12,8 C 10,0 C 85 % 1018,6 hPa 0,0 l/m 0 min 0 min 46 W/m 16,1 km/h (3 Bft) 95,74 %
31.12.2021 12:18 13,3 C 12,8 C 10,0 C 85 % 1018,7 hPa 0,0 l/m 0 min 0 min 51 W/m 25,7 km/h (4 Bft) 91,49 %
31.12.2021 12:20 13,3 C 12,8 C 10,0 C 85 % 1018,8 hPa 0,0 l/m 0 min 0 min 58 W/m 25,7 km/h (4 Bft) 95,65 %
31.12.2021 12:22 13,3 C 12,8 C 10,0 C 85 % 1018,7 hPa 0,0 l/m 0 min 0 min 65 W/m 22,5 km/h (4 Bft) 95,74 %
31.12.2021 12:24 13,3 C 12,8 C 10,0 C 85 % 1018,8 hPa 0,0 l/m 0 min 0 min 73 W/m 35,4 km/h (5 Bft) 95,74 %
31.12.2021 12:26 13,3 C 12,8 C 10,0 C 85 % 1018,7 hPa 0,0 l/m 0 min 0 min 79 W/m 22,5 km/h (4 Bft) 95,74 %
31.12.2021 12:28 13,4 C 12,8 C 10,0 C 85 % 1018,7 hPa 0,0 l/m 0 min 0 min 83 W/m 25,7 km/h (4 Bft) 95,74 %
31.12.2021 12:30 13,4 C 12,8 C 10,0 C 85 % 1018,7 hPa 0,0 l/m 0 min 0 min 86 W/m 29,0 km/h (5 Bft) 97,87 %
31.12.2021 12:32 13,3 C 12,8 C 10,0 C 85 % 1018,7 hPa 0,0 l/m 0 min 0 min 90 W/m 19,3 km/h (3 Bft) 97,83 %
31.12.2021 12:34 13,4 C 12,8 C 10,0 C 85 % 1018,6 hPa 0,0 l/m 0 min 0 min 94 W/m 25,7 km/h (4 Bft) 95,74 %
31.12.2021 12:36 13,4 C 12,8 C 10,0 C 85 % 1018,6 hPa 0,0 l/m 0 min 0 min 97 W/m 19,3 km/h (3 Bft) 95,74 %
31.12.2021 12:38 13,4 C 12,8 C 10,0 C 85 % 1018,6 hPa 0,0 l/m 0 min 0 min 96 W/m 25,7 km/h (4 Bft) 95,74 %
31.12.2021 12:40 13,4 C 12,8 C 10,0 C 85 % 1018,5 hPa 0,0 l/m 0 min 0 min 93 W/m 19,3 km/h (3 Bft) 95,74 %
31.12.2021 12:42 13,4 C 12,8 C 10,0 C 85 % 1018,4 hPa 0,0 l/m 0 min 0 min 98 W/m 22,5 km/h (4 Bft) 93,48 %
31.12.2021 12:44 13,4 C 13,3 C 10,0 C 85 % 1018,5 hPa 0,0 l/m 0 min 0 min 122 W/m 25,7 km/h (4 Bft) 93,62 %
31.12.2021 12:46 13,4 C 13,3 C 10,0 C 85 % 1018,5 hPa 0,0 l/m 0 min 0 min 151 W/m 19,3 km/h (3 Bft) 95,74 %
31.12.2021 12:48 13,4 C 13,3 C 10,0 C 85 % 1018,3 hPa 0,0 l/m 2 min 0 min 164 W/m 29,0 km/h (5 Bft) 97,87 %
31.12.2021 12:50 13,5 C 13,9 C 10,0 C 85 % 1018,3 hPa 0,0 l/m 2 min 0 min 161 W/m 29,0 km/h (5 Bft) 97,87 %
31.12.2021 12:52 13,6 C 13,9 C 10,0 C 85 % 1018,4 hPa 0,0 l/m 0 min 0 min 129 W/m 16,1 km/h (3 Bft) 97,87 %
31.12.2021 12:54 13,6 C 13,9 C 10,0 C 85 % 1018,4 hPa 0,0 l/m 0 min 0 min 131 W/m 19,3 km/h (3 Bft) 95,65 %
31.12.2021 12:56 13,6 C 15,6 C 10,0 C 85 % 1018,4 hPa 0,0 l/m 2 min 0 min 231 W/m 19,3 km/h (3 Bft) 97,87 %
31.12.2021 12:58 13,7 C 17,2 C 10,6 C 85 % 1018,4 hPa 0,0 l/m 2 min 0 min 325 W/m 22,5 km/h (4 Bft) 97,87 %
31.12.2021 13:00 13,8 C 16,7 C 10,6 C 84 % 1018,4 hPa 0,0 l/m 2 min 0 min 236 W/m 35,4 km/h (5 Bft) 97,87 %
31.12.2021 13:02 13,9 C 15,6 C 10,6 C 84 % 1018,4 hPa 0,0 l/m 2 min 0 min 210 W/m 35,4 km/h (5 Bft) 97,87 %
31.12.2021 13:04 13,9 C 14,4 C 10,6 C 84 % 1018,2 hPa 0,0 l/m 0 min 0 min 94 W/m 19,3 km/h (3 Bft) 97,87 %
31.12.2021 13:06 13,9 C 13,9 C 10,6 C 84 % 1018,1 hPa 0,0 l/m 0 min 0 min 75 W/m 22,5 km/h (4 Bft) 95,65 %
31.12.2021 13:08 13,9 C 13,9 C 10,0 C 84 % 1018,1 hPa 0,0 l/m 0 min 0 min 78 W/m 19,3 km/h (3 Bft) 95,74 %
31.12.2021 13:10 13,9 C 14,4 C 10,0 C 84 % 1018,2 hPa 0,0 l/m 2 min 0 min 150 W/m 32,2 km/h (5 Bft) 97,87 %
31.12.2021 13:12 13,9 C 13,9 C 10,0 C 84 % 1018,2 hPa 0,0 l/m 0 min 0 min 96 W/m 22,5 km/h (4 Bft) 100,00 %
31.12.2021 13:14 13,9 C 14,4 C 10,0 C 84 % 1018,1 hPa 0,0 l/m 0 min 0 min 119 W/m 32,2 km/h (5 Bft) 95,74 %
31.12.2021 13:16 13,9 C 14,4 C 10,0 C 84 % 1018,1 hPa 0,0 l/m 2 min 0 min 164 W/m 19,3 km/h (3 Bft) 97,87 %
31.12.2021 13:18 13,9 C 14,4 C 10,0 C 84 % 1018,1 hPa 0,0 l/m 0 min 0 min 110 W/m 16,1 km/h (3 Bft) 100,00 %
31.12.2021 13:20 13,8 C 13,9 C 10,0 C 84 % 1018,0 hPa 0,0 l/m 0 min 0 min 86 W/m 35,4 km/h (5 Bft) 100,00 %
31.12.2021 13:22 13,8 C 13,9 C 10,0 C 84 % 1018,1 hPa 0,0 l/m 0 min 0 min 75 W/m 12,9 km/h (3 Bft) 100,00 %
31.12.2021 13:24 13,8 C 13,3 C 10,0 C 84 % 1018,2 hPa 0,0 l/m 0 min 0 min 59 W/m 16,1 km/h (3 Bft) 100,00 %
31.12.2021 13:26 13,8 C 13,3 C 10,0 C 84 % 1018,4 hPa 0,0 l/m 0 min 0 min 54 W/m 16,1 km/h (3 Bft) 100,00 %
31.12.2021 13:28 13,8 C 13,3 C 10,0 C 84 % 1018,5 hPa 0,0 l/m 0 min 0 min 53 W/m 12,9 km/h (3 Bft) 97,87 %
31.12.2021 13:30 13,7 C 13,3 C 10,0 C 85 % 1018,4 hPa 0,0 l/m 0 min 0 min 64 W/m 6,4 km/h (2 Bft) 100,00 %
31.12.2021 13:32 13,7 C 13,3 C 10,0 C 85 % 1018,3 hPa 0,0 l/m 0 min 0 min 71 W/m 16,1 km/h (3 Bft) 100,00 %
31.12.2021 13:34 13,7 C 13,3 C 10,0 C 85 % 1018,3 hPa 0,0 l/m 0 min 0 min 75 W/m 16,1 km/h (3 Bft) 100,00 %
31.12.2021 13:36 13,7 C 13,3 C 10,0 C 85 % 1018,2 hPa 0,0 l/m 0 min 0 min 83 W/m 12,9 km/h (3 Bft) 100,00 %
31.12.2021 13:38 13,7 C 13,3 C 10,0 C 85 % 1018,0 hPa 0,0 l/m 0 min 0 min 85 W/m 12,9 km/h (3 Bft) 100,00 %
31.12.2021 13:40 13,7 C 13,3 C 10,0 C 85 % 1017,9 hPa 0,0 l/m 0 min 0 min 63 W/m 19,3 km/h (3 Bft) 100,00 %
31.12.2021 13:42 13,7 C 13,3 C 10,0 C 85 % 1017,8 hPa 0,0 l/m 0 min 0 min 51 W/m 16,1 km/h (3 Bft) 97,83 %
31.12.2021 13:44 13,7 C 13,3 C 10,0 C 85 % 1017,8 hPa 0,0 l/m 0 min 0 min 56 W/m 25,7 km/h (4 Bft) 97,87 %
31.12.2021 13:46 13,7 C 13,3 C 10,0 C 85 % 1017,9 hPa 0,0 l/m 0 min 0 min 91 W/m 32,2 km/h (5 Bft) 97,87 %
31.12.2021 13:48 13,7 C 13,9 C 10,0 C 85 % 1017,6 hPa 0,0 l/m 0 min 0 min 108 W/m 22,5 km/h (4 Bft) 100,00 %
31.12.2021 13:50 13,7 C 13,9 C 10,0 C 85 % 1017,5 hPa 0,0 l/m 0 min 0 min 124 W/m 22,5 km/h (4 Bft) 100,00 %
31.12.2021 13:52 13,8 C 13,9 C 10,0 C 85 % 1017,4 hPa 0,0 l/m 0 min 0 min 118 W/m 12,9 km/h (3 Bft) 100,00 %
31.12.2021 13:54 13,8 C 13,9 C 10,0 C 85 % 1017,5 hPa 0,0 l/m 0 min 0 min 117 W/m 22,5 km/h (4 Bft) 100,00 %
31.12.2021 13:56 13,8 C 13,9 C 10,0 C 85 % 1017,5 hPa 0,0 l/m 0 min 0 min 114 W/m 29,0 km/h (5 Bft) 100,00 %
31.12.2021 13:58 13,9 C 14,4 C 10,0 C 84 % 1017,5 hPa 0,0 l/m 2 min 0 min 294 W/m 16,1 km/h (3 Bft) 100,00 %
31.12.2021 14:00 13,9 C 13,9 C 10,6 C 84 % 1017,5 hPa 0,0 l/m 2 min 0 min 202 W/m 22,5 km/h (4 Bft) 100,00 %
31.12.2021 14:02 14,0 C 13,9 C 10,6 C 84 % 1017,4 hPa 0,0 l/m 2 min 0 min 151 W/m 38,6 km/h (5 Bft) 100,00 %
31.12.2021 14:04 14,1 C 13,9 C 10,6 C 84 % 1017,4 hPa 0,0 l/m 0 min 0 min 101 W/m 22,5 km/h (4 Bft) 100,00 %
31.12.2021 14:06 14,1 C 13,9 C 10,6 C 84 % 1017,5 hPa 0,0 l/m 0 min 0 min 98 W/m 16,1 km/h (3 Bft) 100,00 %
31.12.2021 14:08 14,1 C 13,9 C 10,6 C 84 % 1017,7 hPa 0,0 l/m 0 min 0 min 108 W/m 16,1 km/h (3 Bft) 97,87 %
31.12.2021 14:10 14,1 C 13,9 C 10,6 C 84 % 1017,6 hPa 0,0 l/m 0 min 0 min 105 W/m 16,1 km/h (3 Bft) 100,00 %
31.12.2021 14:12 14,1 C 13,9 C 10,6 C 84 % 1017,6 hPa 0,0 l/m 0 min 0 min 102 W/m 22,5 km/h (4 Bft) 100,00 %
31.12.2021 14:14 14,1 C 13,9 C 10,6 C 84 % 1017,5 hPa 0,0 l/m 0 min 0 min 103 W/m 16,1 km/h (3 Bft) 100,00 %
31.12.2021 14:16 14,1 C 13,9 C 10,6 C 84 % 1017,6 hPa 0,0 l/m 0 min 0 min 108 W/m 16,1 km/h (3 Bft) 100,00 %
31.12.2021 14:18 14,1 C 13,9 C 10,6 C 84 % 1017,6 hPa 0,0 l/m 2 min 0 min 236 W/m 16,1 km/h (3 Bft) 100,00 %
31.12.2021 14:20 14,2 C 13,9 C 10,6 C 84 % 1017,6 hPa 0,0 l/m 0 min 0 min 119 W/m 12,9 km/h (3 Bft) 100,00 %
31.12.2021 14:22 14,2 C 13,9 C 10,6 C 84 % 1017,6 hPa 0,0 l/m 0 min 0 min 91 W/m 22,5 km/h (4 Bft) 97,87 %
31.12.2021 14:24 14,2 C 13,9 C 10,6 C 84 % 1017,6 hPa 0,0 l/m 0 min 0 min 74 W/m 19,3 km/h (3 Bft) 97,87 %
31.12.2021 14:26 14,2 C 13,9 C 10,6 C 84 % 1017,6 hPa 0,0 l/m 0 min 0 min 94 W/m 19,3 km/h (3 Bft) 97,87 %
31.12.2021 14:28 14,1 C 13,9 C 10,0 C 84 % 1017,6 hPa 0,0 l/m 0 min 0 min 66 W/m 16,1 km/h (3 Bft) 97,87 %
31.12.2021 14:30 14,1 C 13,9 C 10,0 C 84 % 1017,7 hPa 0,0 l/m 0 min 0 min 64 W/m 16,1 km/h (3 Bft) 97,83 %
31.12.2021 14:32 14,1 C 13,9 C 10,0 C 84 % 1017,6 hPa 0,0 l/m 0 min 0 min 113 W/m 12,9 km/h (3 Bft) 95,74 %
31.12.2021 14:34 14,1 C 13,9 C 10,0 C 85 % 1017,7 hPa 0,0 l/m 2 min 0 min 151 W/m 19,3 km/h (3 Bft) 95,74 %
31.12.2021 14:36 14,1 C 13,9 C 10,0 C 84 % 1017,7 hPa 0,0 l/m 0 min 0 min 59 W/m 16,1 km/h (3 Bft) 97,87 %
31.12.2021 14:38 14,1 C 13,9 C 10,0 C 85 % 1017,9 hPa 0,0 l/m 2 min 0 min 155 W/m 32,2 km/h (5 Bft) 95,74 %
31.12.2021 14:40 14,1 C 13,9 C 10,0 C 85 % 1017,9 hPa 0,0 l/m 2 min 0 min 121 W/m 22,5 km/h (4 Bft) 97,83 %
31.12.2021 14:42 14,1 C 14,4 C 10,0 C 84 % 1017,8 hPa 0,0 l/m 0 min 0 min 96 W/m 22,5 km/h (4 Bft) 97,87 %
31.12.2021 14:44 14,1 C 14,4 C 10,0 C 84 % 1017,9 hPa 0,0 l/m 2 min 0 min 122 W/m 19,3 km/h (3 Bft) 95,74 %
31.12.2021 14:45 14,1 C 14,4 C 10,0 C 85 % 1017,9 hPa 0,0 l/m 1 min 0 min 121 W/m 22,5 km/h (4 Bft) 98,25 %
31.12.2021 14:48 14,1 C 14,4 C 10,0 C 85 % 1018,0 hPa 0,0 l/m 3 min 0 min 123 W/m 12,9 km/h (3 Bft) 97,78 %
31.12.2021 14:50 14,2 C 14,4 C 10,0 C 85 % 1018,0 hPa 0,0 l/m 2 min 0 min 108 W/m 19,3 km/h (3 Bft) 93,62 %
31.12.2021 14:52 14,2 C 13,9 C 10,0 C 85 % 1018,0 hPa 0,0 l/m 2 min 0 min 111 W/m 12,9 km/h (3 Bft) 95,65 %
31.12.2021 14:54 14,2 C 13,9 C 10,0 C 85 % 1018,1 hPa 0,0 l/m 2 min 0 min 124 W/m 16,1 km/h (3 Bft) 93,62 %
31.12.2021 14:56 14,2 C 13,9 C 10,6 C 85 % 1018,1 hPa 0,0 l/m 2 min 0 min 172 W/m 16,1 km/h (3 Bft) 93,62 %
31.12.2021 14:58 14,3 C 13,9 C 10,6 C 85 % 1018,1 hPa 0,0 l/m 2 min 0 min 142 W/m 12,9 km/h (3 Bft) 89,36 %
31.12.2021 15:00 14,3 C 13,9 C 10,6 C 85 % 1018,1 hPa 0,0 l/m 2 min 0 min 103 W/m 16,1 km/h (3 Bft) 93,62 %
31.12.2021 15:02 14,3 C 13,9 C 10,6 C 85 % 1018,2 hPa 0,0 l/m 0 min 0 min 72 W/m 16,1 km/h (3 Bft) 93,62 %
31.12.2021 15:04 14,3 C 13,9 C 10,6 C 85 % 1018,3 hPa 0,0 l/m 0 min 0 min 68 W/m 19,3 km/h (3 Bft) 93,48 %
31.12.2021 15:06 14,3 C 13,9 C 10,6 C 85 % 1018,4 hPa 0,0 l/m 0 min 0 min 73 W/m 22,5 km/h (4 Bft) 91,49 %
31.12.2021 15:08 14,3 C 13,9 C 10,6 C 85 % 1018,4 hPa 0,0 l/m 0 min 0 min 82 W/m 19,3 km/h (3 Bft) 95,74 %
31.12.2021 15:10 14,3 C 13,9 C 10,6 C 85 % 1018,3 hPa 0,0 l/m 2 min 0 min 93 W/m 22,5 km/h (4 Bft) 93,62 %
31.12.2021 15:12 14,3 C 13,9 C 10,6 C 85 % 1018,4 hPa 0,0 l/m 2 min 0 min 104 W/m 22,5 km/h (4 Bft) 95,74 %
31.12.2021 15:14 14,3 C 13,9 C 10,6 C 85 % 1018,4 hPa 0,0 l/m 2 min 0 min 117 W/m 25,7 km/h (4 Bft) 93,62 %
31.12.2021 15:16 14,3 C 13,9 C 10,6 C 85 % 1018,4 hPa 0,0 l/m 2 min 0 min 130 W/m 12,9 km/h (3 Bft) 95,65 %
31.12.2021 15:18 14,3 C 13,9 C 10,6 C 85 % 1018,5 hPa 0,0 l/m 2 min 0 min 120 W/m 19,3 km/h (3 Bft) 91,49 %
31.12.2021 15:20 14,3 C 13,9 C 10,6 C 85 % 1018,5 hPa 0,0 l/m 2 min 0 min 90 W/m 19,3 km/h (3 Bft) 95,74 %
31.12.2021 15:22 14,3 C 13,9 C 10,6 C 85 % 1018,5 hPa 0,0 l/m 0 min 0 min 67 W/m 19,3 km/h (3 Bft) 95,74 %
31.12.2021 15:24 14,3 C 13,9 C 10,6 C 85 % 1018,5 hPa 0,0 l/m 0 min 0 min 46 W/m 12,9 km/h (3 Bft) 95,74 %
31.12.2021 15:26 14,3 C 13,9 C 10,6 C 85 % 1018,5 hPa 0,0 l/m 0 min 0 min 37 W/m 16,1 km/h (3 Bft) 93,62 %
31.12.2021 15:28 14,3 C 13,9 C 10,0 C 85 % 1018,5 hPa 0,0 l/m 0 min 0 min 33 W/m 16,1 km/h (3 Bft) 95,65 %
31.12.2021 15:30 14,3 C 13,3 C 10,0 C 85 % 1018,5 hPa 0,0 l/m 0 min 0 min 33 W/m 16,1 km/h (3 Bft) 93,62 %
31.12.2021 15:32 14,3 C 13,3 C 10,0 C 85 % 1018,5 hPa 0,0 l/m 0 min 0 min 32 W/m 16,1 km/h (3 Bft) 97,87 %
31.12.2021 15:34 14,3 C 13,3 C 10,0 C 85 % 1018,6 hPa 0,0 l/m 0 min 0 min 31 W/m 12,9 km/h (3 Bft) 97,87 %
31.12.2021 15:36 14,2 C 13,3 C 10,0 C 85 % 1018,6 hPa 0,0 l/m 0 min 0 min 30 W/m 16,1 km/h (3 Bft) 91,49 %
31.12.2021 15:38 14,2 C 13,3 C 10,0 C 85 % 1018,7 hPa 0,0 l/m 0 min 0 min 30 W/m 12,9 km/h (3 Bft) 97,87 %
31.12.2021 15:40 14,1 C 13,3 C 10,0 C 85 % 1018,7 hPa 0,0 l/m 0 min 0 min 32 W/m 19,3 km/h (3 Bft) 97,83 %
31.12.2021 15:42 14,1 C 13,3 C 10,0 C 85 % 1018,6 hPa 0,0 l/m 0 min 0 min 34 W/m 12,9 km/h (3 Bft) 95,74 %
31.12.2021 15:44 14,1 C 13,3 C 10,0 C 86 % 1018,7 hPa 0,0 l/m 0 min 0 min 34 W/m 16,1 km/h (3 Bft) 97,87 %
31.12.2021 15:46 14,1 C 13,3 C 10,0 C 85 % 1018,7 hPa 0,0 l/m 0 min 0 min 34 W/m 19,3 km/h (3 Bft) 100,00 %
31.12.2021 15:48 14,1 C 13,3 C 10,0 C 85 % 1018,7 hPa 0,0 l/m 0 min 0 min 29 W/m 12,9 km/h (3 Bft) 100,00 %
31.12.2021 15:50 14,0 C 13,3 C 10,0 C 85 % 1018,8 hPa 0,0 l/m 0 min 0 min 20 W/m 9,7 km/h (2 Bft) 100,00 %
31.12.2021 15:52 14,0 C 13,3 C 10,0 C 86 % 1018,8 hPa 0,0 l/m 0 min 0 min 24 W/m 12,9 km/h (3 Bft) 97,83 %
31.12.2021 15:54 13,9 C 12,8 C 10,0 C 86 % 1018,8 hPa 0,0 l/m 0 min 0 min 18 W/m 12,9 km/h (3 Bft) 100,00 %
31.12.2021 15:56 13,9 C 12,8 C 10,0 C 86 % 1018,8 hPa 0,0 l/m 0 min 0 min 12 W/m 16,1 km/h (3 Bft) 100,00 %
31.12.2021 15:58 13,9 C 12,8 C 10,0 C 86 % 1018,8 hPa 0,0 l/m 0 min 0 min 9 W/m 12,9 km/h (3 Bft) 100,00 %
31.12.2021 16:00 13,9 C 12,8 C 10,0 C 86 % 1018,9 hPa 0,0 l/m 0 min 0 min 9 W/m 12,9 km/h (3 Bft) 100,00 %
31.12.2021 16:02 13,9 C 12,8 C 10,0 C 86 % 1018,9 hPa 0,0 l/m 0 min 0 min 7 W/m 19,3 km/h (3 Bft) 100,00 %
31.12.2021 16:04 13,9 C 12,8 C 10,0 C 86 % 1018,9 hPa 0,0 l/m 0 min 0 min 7 W/m 6,4 km/h (2 Bft) 100,00 %
31.12.2021 16:06 13,9 C 12,8 C 10,0 C 86 % 1019,0 hPa 0,0 l/m 0 min 0 min 7 W/m 16,1 km/h (3 Bft) 100,00 %
31.12.2021 16:08 13,9 C 12,8 C 10,0 C 86 % 1019,0 hPa 0,0 l/m 0 min 0 min 7 W/m 16,1 km/h (3 Bft) 97,87 %
31.12.2021 16:10 13,9 C 12,8 C 10,0 C 86 % 1019,1 hPa 0,0 l/m 0 min 0 min 6 W/m 16,1 km/h (3 Bft) 100,00 %
31.12.2021 16:12 13,9 C 12,8 C 10,0 C 86 % 1019,1 hPa 0,0 l/m 0 min 0 min 2 W/m 12,9 km/h (3 Bft) 100,00 %
31.12.2021 16:14 13,8 C 12,8 C 10,0 C 86 % 1019,2 hPa 0,0 l/m 0 min 0 min 0 W/m 6,4 km/h (2 Bft) 100,00 %
31.12.2021 16:16 13,8 C 12,8 C 10,0 C 86 % 1019,2 hPa 0,0 l/m 0 min 0 min 0 W/m 12,9 km/h (3 Bft) 97,83 %
31.12.2021 16:18 13,8 C 12,8 C 10,0 C 87 % 1019,3 hPa 0,0 l/m 0 min 0 min 0 W/m 6,4 km/h (2 Bft) 100,00 %
31.12.2021 16:20 13,8 C 12,8 C 9,4 C 87 % 1019,3 hPa 0,0 l/m 0 min 0 min 0 W/m 6,4 km/h (2 Bft) 100,00 %
31.12.2021 16:22 13,8 C 12,8 C 10,0 C 86 % 1019,4 hPa 0,0 l/m 0 min 0 min 0 W/m 12,9 km/h (3 Bft) 100,00 %
31.12.2021 16:24 13,8 C 12,8 C 10,0 C 87 % 1019,3 hPa 0,0 l/m 0 min 0 min 0 W/m 25,7 km/h (4 Bft) 100,00 %
31.12.2021 16:26 13,8 C 12,8 C 10,0 C 87 % 1019,4 hPa 0,0 l/m 0 min 0 min 0 W/m 16,1 km/h (3 Bft) 100,00 %
31.12.2021 16:28 13,8 C 12,8 C 9,4 C 87 % 1019,3 hPa 0,0 l/m 0 min 0 min 0 W/m 12,9 km/h (3 Bft) 100,00 %
31.12.2021 16:30 13,8 C 12,8 C 10,0 C 87 % 1019,4 hPa 0,0 l/m 0 min 0 min 0 W/m 6,4 km/h (2 Bft) 100,00 %
31.12.2021 16:32 13,8 C 12,8 C 10,0 C 87 % 1019,5 hPa 0,0 l/m 0 min 0 min 0 W/m 12,9 km/h (3 Bft) 97,87 %
31.12.2021 16:34 13,8 C 12,8 C 10,0 C 87 % 1019,5 hPa 0,0 l/m 0 min 0 min 0 W/m 12,9 km/h (3 Bft) 100,00 %
31.12.2021 16:36 13,8 C 12,8 C 10,0 C 87 % 1019,5 hPa 0,0 l/m 0 min 0 min 0 W/m 16,1 km/h (3 Bft) 100,00 %
31.12.2021 16:38 13,8 C 12,8 C 10,0 C 87 % 1019,5 hPa 0,0 l/m 0 min 0 min 0 W/m 12,9 km/h (3 Bft) 100,00 %
31.12.2021 16:40 13,8 C 12,8 C 10,0 C 87 % 1019,6 hPa 0,0 l/m 0 min 0 min 0 W/m 16,1 km/h (3 Bft) 100,00 %
31.12.2021 16:42 13,8 C 12,8 C 10,0 C 87 % 1019,5 hPa 0,0 l/m 0 min 0 min 0 W/m 16,1 km/h (3 Bft) 97,87 %
31.12.2021 16:44 13,8 C 12,8 C 10,0 C 87 % 1019,5 hPa 0,0 l/m 0 min 0 min 0 W/m 16,1 km/h (3 Bft) 100,00 %
31.12.2021 16:45 13,8 C 12,8 C 10,0 C 87 % 1019,5 hPa 0,0 l/m 0 min 0 min 0 W/m 16,1 km/h (3 Bft) 100,00 %
31.12.2021 16:48 13,8 C 12,8 C 10,0 C 87 % 1019,5 hPa 0,0 l/m 0 min 0 min 0 W/m 12,9 km/h (3 Bft) 97,62 %
31.12.2021 16:50 13,8 C 12,8 C 10,0 C 87 % 1019,5 hPa 0,0 l/m 0 min 0 min 0 W/m 16,1 km/h (3 Bft) 98,48 %
31.12.2021 16:52 13,8 C 12,8 C 10,0 C 87 % 1019,5 hPa 0,0 l/m 0 min 0 min 0 W/m 22,5 km/h (4 Bft) 97,83 %
31.12.2021 16:54 13,8 C 12,8 C 10,0 C 87 % 1019,5 hPa 0,0 l/m 0 min 0 min 0 W/m 19,3 km/h (3 Bft) 100,00 %
31.12.2021 16:56 13,8 C 12,8 C 10,0 C 87 % 1019,5 hPa 0,0 l/m 0 min 0 min 0 W/m 22,5 km/h (4 Bft) 100,00 %
31.12.2021 16:58 13,8 C 12,8 C 10,0 C 87 % 1019,5 hPa 0,0 l/m 0 min 0 min 0 W/m 12,9 km/h (3 Bft) 100,00 %
31.12.2021 17:00 13,8 C 12,8 C 10,0 C 87 % 1019,5 hPa 0,0 l/m 0 min 0 min 0 W/m 12,9 km/h (3 Bft) 95,74 %
31.12.2021 17:02 13,7 C 12,8 C 9,4 C 87 % 1019,6 hPa 0,0 l/m 0 min 0 min 0 W/m 16,1 km/h (3 Bft) 95,74 %
31.12.2021 17:04 13,7 C 12,8 C 9,4 C 87 % 1019,6 hPa 0,0 l/m 0 min 0 min 0 W/m 16,1 km/h (3 Bft) 93,48 %
31.12.2021 17:06 13,7 C 12,8 C 9,4 C 87 % 1019,6 hPa 0,0 l/m 0 min 0 min 0 W/m 12,9 km/h (3 Bft) 95,74 %
31.12.2021 17:08 13,7 C 12,8 C 10,0 C 88 % 1019,6 hPa 0,0 l/m 0 min 0 min 0 W/m 12,9 km/h (3 Bft) 95,74 %
31.12.2021 17:10 13,7 C 12,8 C 9,4 C 88 % 1019,7 hPa 0,0 l/m 0 min 0 min 0 W/m 12,9 km/h (3 Bft) 91,49 %
31.12.2021 17:12 13,7 C 12,8 C 9,4 C 88 % 1019,7 hPa 0,0 l/m 0 min 0 min 0 W/m 12,9 km/h (3 Bft) 95,74 %
31.12.2021 17:14 13,7 C 12,8 C 9,4 C 88 % 1019,7 hPa 0,0 l/m 0 min 0 min 0 W/m 12,9 km/h (3 Bft) 95,92 %
31.12.2021 17:16 13,7 C 12,8 C 9,4 C 88 % 1019,6 hPa 0,0 l/m 0 min 0 min 0 W/m 16,1 km/h (3 Bft) 95,74 %
31.12.2021 17:18 13,7 C 12,8 C 9,4 C 88 % 1019,6 hPa 0,0 l/m 0 min 0 min 0 W/m 16,1 km/h (3 Bft) 95,74 %
31.12.2021 17:20 13,7 C 12,8 C 9,4 C 88 % 1019,6 hPa 0,0 l/m 0 min 0 min 0 W/m 9,7 km/h (2 Bft) 93,62 %
31.12.2021 17:22 13,6 C 12,8 C 9,4 C 88 % 1019,6 hPa 0,0 l/m 0 min 0 min 0 W/m 9,7 km/h (2 Bft) 95,74 %
31.12.2021 17:24 13,6 C 12,8 C 9,4 C 88 % 1019,6 hPa 0,0 l/m 0 min 0 min 0 W/m 12,9 km/h (3 Bft) 95,74 %
31.12.2021 17:26 13,6 C 12,8 C 9,4 C 88 % 1019,7 hPa 0,0 l/m 0 min 0 min 0 W/m 6,4 km/h (2 Bft) 93,48 %
31.12.2021 17:28 13,6 C 12,8 C 9,4 C 88 % 1019,7 hPa 0,0 l/m 0 min 0 min 0 W/m 16,1 km/h (3 Bft) 95,74 %
31.12.2021 17:30 13,6 C 12,8 C 9,4 C 88 % 1019,7 hPa 0,0 l/m 0 min 0 min 0 W/m 16,1 km/h (3 Bft) 93,62 %
31.12.2021 17:32 13,6 C 12,8 C 9,4 C 88 % 1019,7 hPa 0,0 l/m 0 min 0 min 0 W/m 12,9 km/h (3 Bft) 95,74 %
31.12.2021 17:34 13,5 C 12,8 C 9,4 C 88 % 1019,7 hPa 0,0 l/m 0 min 0 min 0 W/m 9,7 km/h (2 Bft) 97,87 %
31.12.2021 17:36 13,5 C 12,8 C 9,4 C 88 % 1019,7 hPa 0,0 l/m 0 min 0 min 0 W/m 22,5 km/h (4 Bft) 95,74 %
31.12.2021 17:38 13,5 C 12,8 C 9,4 C 88 % 1019,8 hPa 0,0 l/m 0 min 0 min 0 W/m 22,5 km/h (4 Bft) 97,83 %
31.12.2021 17:40 13,5 C 12,8 C 9,4 C 88 % 1019,8 hPa 0,0 l/m 0 min 0 min 0 W/m 6,4 km/h (2 Bft) 95,74 %
31.12.2021 17:42 13,5 C 12,8 C 9,4 C 89 % 1019,8 hPa 0,0 l/m 0 min 0 min 0 W/m 12,9 km/h (3 Bft) 95,74 %
31.12.2021 17:44 13,5 C 12,8 C 9,4 C 89 % 1019,9 hPa 0,0 l/m 0 min 0 min 0 W/m 19,3 km/h (3 Bft) 93,62 %
31.12.2021 17:46 13,5 C 12,8 C 9,4 C 89 % 1019,9 hPa 0,0 l/m 0 min 0 min 0 W/m 19,3 km/h (3 Bft) 97,87 %
31.12.2021 17:48 13,5 C 12,8 C 9,4 C 89 % 1019,9 hPa 0,0 l/m 0 min 0 min 0 W/m 12,9 km/h (3 Bft) 97,87 %
31.12.2021 17:50 13,4 C 12,8 C 9,4 C 89 % 1019,9 hPa 0,0 l/m 0 min 0 min 0 W/m 12,9 km/h (3 Bft) 95,65 %
31.12.2021 17:52 13,4 C 12,8 C 9,4 C 89 % 1020,0 hPa 0,0 l/m 0 min 0 min 0 W/m 22,5 km/h (4 Bft) 95,74 %
31.12.2021 17:54 13,4 C 12,8 C 9,4 C 90 % 1019,9 hPa 0,0 l/m 0 min 0 min 0 W/m 16,1 km/h (3 Bft) 97,87 %
31.12.2021 17:56 13,4 C 12,2 C 9,4 C 90 % 1020,0 hPa 0,0 l/m 0 min 0 min 0 W/m 16,1 km/h (3 Bft) 97,87 %
31.12.2021 17:58 13,3 C 12,2 C 9,4 C 90 % 1020,0 hPa 0,0 l/m 0 min 0 min 0 W/m 22,5 km/h (4 Bft) 97,87 %
31.12.2021 18:00 13,3 C 12,2 C 9,4 C 90 % 1020,0 hPa 0,0 l/m 0 min 0 min 0 W/m 16,1 km/h (3 Bft) 95,74 %
31.12.2021 18:02 13,3 C 12,2 C 9,4 C 90 % 1020,0 hPa 0,0 l/m 0 min 0 min 0 W/m 16,1 km/h (3 Bft) 97,83 %
31.12.2021 18:04 13,3 C 12,2 C 9,4 C 90 % 1020,1 hPa 0,0 l/m 0 min 0 min 0 W/m 12,9 km/h (3 Bft) 97,87 %
31.12.2021 18:08 13,2 C 12,2 C 9,4 C 91 % 1020,1 hPa 0,0 l/m 0 min 0 min 0 W/m 19,3 km/h (3 Bft) 97,87 %
31.12.2021 18:10 13,2 C 12,2 C 9,4 C 91 % 1020,2 hPa 0,0 l/m 0 min 0 min 0 W/m 16,1 km/h (3 Bft) 97,87 %
31.12.2021 18:12 13,2 C 12,2 C 9,4 C 91 % 1020,2 hPa 0,0 l/m 0 min 0 min 0 W/m 12,9 km/h (3 Bft) 97,87 %
31.12.2021 18:14 13,2 C 12,2 C 9,4 C 91 % 1020,3 hPa 0,0 l/m 0 min 0 min 0 W/m 22,5 km/h (4 Bft) 97,83 %
31.12.2021 18:16 13,1 C 12,2 C 9,4 C 91 % 1020,3 hPa 0,0 l/m 0 min 0 min 0 W/m 12,9 km/h (3 Bft) 97,87 %
31.12.2021 18:18 13,1 C 12,2 C 9,4 C 91 % 1020,4 hPa 0,0 l/m 0 min 0 min 0 W/m 16,1 km/h (3 Bft) 95,74 %
31.12.2021 18:20 13,1 C 12,2 C 9,4 C 92 % 1020,4 hPa 0,0 l/m 0 min 0 min 0 W/m 16,1 km/h (3 Bft) 97,87 %
31.12.2021 18:22 13,1 C 12,2 C 9,4 C 92 % 1020,4 hPa 0,0 l/m 0 min 0 min 0 W/m 16,1 km/h (3 Bft) 93,62 %
31.12.2021 18:24 13,1 C 12,2 C 9,4 C 92 % 1020,4 hPa 0,0 l/m 0 min 0 min 0 W/m 12,9 km/h (3 Bft) 97,87 %
31.12.2021 18:26 13,1 C 12,2 C 9,4 C 92 % 1020,6 hPa 0,0 l/m 0 min 0 min 0 W/m 12,9 km/h (3 Bft) 97,83 %
31.12.2021 18:28 13,1 C 12,2 C 9,4 C 92 % 1020,6 hPa 0,0 l/m 0 min 0 min 0 W/m 6,4 km/h (2 Bft) 100,00 %
31.12.2021 18:30 13,1 C 12,2 C 9,4 C 92 % 1020,6 hPa 0,0 l/m 0 min 0 min 0 W/m 22,5 km/h (4 Bft) 100,00 %
31.12.2021 18:32 13,0 C 12,2 C 9,4 C 92 % 1020,6 hPa 0,0 l/m 0 min 0 min 0 W/m 19,3 km/h (3 Bft) 100,00 %
31.12.2021 18:34 13,0 C 12,2 C 9,4 C 92 % 1020,7 hPa 0,0 l/m 0 min 0 min 0 W/m 12,9 km/h (3 Bft) 97,87 %
31.12.2021 18:36 13,0 C 12,2 C 9,4 C 92 % 1020,7 hPa 0,0 l/m 0 min 0 min 0 W/m 16,1 km/h (3 Bft) 100,00 %
31.12.2021 18:38 13,0 C 12,2 C 9,4 C 92 % 1020,7 hPa 0,0 l/m 0 min 0 min 0 W/m 19,3 km/h (3 Bft) 100,00 %
31.12.2021 18:40 13,0 C 12,2 C 9,4 C 93 % 1020,7 hPa 0,0 l/m 0 min 0 min 0 W/m 12,9 km/h (3 Bft) 97,87 %
31.12.2021 18:42 13,0 C 12,2 C 9,4 C 93 % 1020,8 hPa 0,0 l/m 0 min 0 min 0 W/m 12,9 km/h (3 Bft) 52,38 %
31.12.2021 18:44 13,0 C 12,2 C 9,4 C 93 % 1020,7 hPa 0,0 l/m 0 min 0 min 0 W/m 12,9 km/h (3 Bft) 100,00 %
31.12.2021 18:46 13,0 C 12,2 C 9,4 C 93 % 1020,8 hPa 0,0 l/m 0 min 0 min 0 W/m 12,9 km/h (3 Bft) 100,00 %
31.12.2021 18:48 12,9 C 12,2 C 9,4 C 93 % 1020,8 hPa 0,0 l/m 0 min 0 min 0 W/m 6,4 km/h (2 Bft) 100,00 %
31.12.2021 18:50 12,9 C 12,2 C 9,4 C 93 % 1020,9 hPa 0,0 l/m 0 min 0 min 0 W/m 16,1 km/h (3 Bft) 100,00 %
31.12.2021 18:52 13,0 C 12,2 C 9,4 C 93 % 1021,0 hPa 0,0 l/m 0 min 0 min 0 W/m 16,1 km/h (3 Bft) 97,87 %
31.12.2021 18:54 13,0 C 12,2 C 9,4 C 93 % 1020,9 hPa 0,0 l/m 0 min 0 min 0 W/m 12,9 km/h (3 Bft) 97,87 %
31.12.2021 18:56 13,0 C 12,2 C 9,4 C 93 % 1020,9 hPa 0,0 l/m 0 min 0 min 0 W/m 12,9 km/h (3 Bft) 100,00 %
31.12.2021 18:58 13,0 C 12,2 C 9,4 C 93 % 1020,9 hPa 0,0 l/m 0 min 0 min 0 W/m 16,1 km/h (3 Bft) 100,00 %
31.12.2021 19:00 13,0 C 12,2 C 9,4 C 93 % 1020,9 hPa 0,0 l/m 0 min 0 min 0 W/m 6,4 km/h (2 Bft) 97,87 %
31.12.2021 19:02 13,0 C 12,2 C 9,4 C 93 % 1020,9 hPa 0,0 l/m 0 min 0 min 0 W/m 19,3 km/h (3 Bft) 97,83 %
31.12.2021 19:04 13,0 C 12,2 C 9,4 C 93 % 1021,0 hPa 0,0 l/m 0 min 0 min 0 W/m 12,9 km/h (3 Bft) 97,87 %
31.12.2021 19:06 13,0 C 12,2 C 9,4 C 93 % 1021,1 hPa 0,0 l/m 0 min 0 min 0 W/m 19,3 km/h (3 Bft) 97,87 %
31.12.2021 19:08 13,0 C 12,2 C 9,4 C 93 % 1021,1 hPa 0,0 l/m 0 min 0 min 0 W/m 16,1 km/h (3 Bft) 97,87 %
31.12.2021 19:10 13,0 C 12,2 C 9,4 C 93 % 1021,2 hPa 0,0 l/m 0 min 0 min 0 W/m 16,1 km/h (3 Bft) 97,87 %
31.12.2021 19:12 13,0 C 12,2 C 9,4 C 93 % 1021,2 hPa 0,0 l/m 0 min 0 min 0 W/m 12,9 km/h (3 Bft) 97,87 %
31.12.2021 19:14 13,0 C 12,2 C 9,4 C 93 % 1021,1 hPa 0,0 l/m 0 min 0 min 0 W/m 16,1 km/h (3 Bft) 95,65 %
31.12.2021 19:16 13,0 C 12,2 C 9,4 C 93 % 1021,2 hPa 0,0 l/m 0 min 0 min 0 W/m 12,9 km/h (3 Bft) 95,74 %
31.12.2021 19:18 13,0 C 12,2 C 9,4 C 93 % 1021,2 hPa 0,0 l/m 0 min 0 min 0 W/m 16,1 km/h (3 Bft) 97,87 %
31.12.2021 19:20 13,0 C 12,2 C 9,4 C 93 % 1021,3 hPa 0,0 l/m 0 min 0 min 0 W/m 22,5 km/h (4 Bft) 97,87 %
31.12.2021 19:22 13,0 C 12,2 C 9,4 C 93 % 1021,3 hPa 0,0 l/m 0 min 0 min 0 W/m 12,9 km/h (3 Bft) 97,87 %
31.12.2021 19:24 13,0 C 12,2 C 9,4 C 93 % 1021,4 hPa 0,0 l/m 0 min 0 min 0 W/m 29,0 km/h (5 Bft) 97,87 %
31.12.2021 19:26 13,1 C 12,2 C 9,4 C 93 % 1021,4 hPa 0,0 l/m 0 min 0 min 0 W/m 19,3 km/h (3 Bft) 97,83 %
31.12.2021 19:28 13,1 C 12,2 C 9,4 C 93 % 1021,4 hPa 0,0 l/m 0 min 0 min 0 W/m 16,1 km/h (3 Bft) 97,87 %
31.12.2021 19:30 13,1 C 12,2 C 9,4 C 93 % 1021,5 hPa 0,0 l/m 0 min 0 min 0 W/m 16,1 km/h (3 Bft) 97,87 %
31.12.2021 19:32 13,1 C 12,2 C 9,4 C 93 % 1021,5 hPa 0,0 l/m 0 min 0 min 0 W/m 16,1 km/h (3 Bft) 97,92 %
31.12.2021 19:34 13,1 C 12,2 C 9,4 C 93 % 1021,5 hPa 0,0 l/m 0 min 0 min 0 W/m 12,9 km/h (3 Bft) 100,00 %
31.12.2021 19:36 13,1 C 12,2 C 9,4 C 93 % 1021,5 hPa 0,0 l/m 0 min 0 min 0 W/m 16,1 km/h (3 Bft) 97,87 %
31.12.2021 19:38 13,1 C 12,2 C 9,4 C 93 % 1021,5 hPa 0,0 l/m 0 min 0 min 0 W/m 6,4 km/h (2 Bft) 100,00 %
31.12.2021 19:40 13,1 C 12,2 C 9,4 C 92 % 1021,6 hPa 0,0 l/m 0 min 0 min 0 W/m 9,7 km/h (2 Bft) 97,87 %
31.12.2021 19:42 13,1 C 12,2 C 9,4 C 92 % 1021,6 hPa 0,0 l/m 0 min 0 min 0 W/m 19,3 km/h (3 Bft) 100,00 %
31.12.2021 19:44 13,1 C 12,2 C 9,4 C 92 % 1021,6 hPa 0,0 l/m 0 min 0 min 0 W/m 9,7 km/h (2 Bft) 100,00 %
31.12.2021 19:46 13,1 C 12,2 C 9,4 C 92 % 1021,6 hPa 0,0 l/m 0 min 0 min 0 W/m 19,3 km/h (3 Bft) 95,74 %
31.12.2021 19:48 13,1 C 12,2 C 9,4 C 92 % 1021,7 hPa 0,0 l/m 0 min 0 min 0 W/m 12,9 km/h (3 Bft) 97,87 %
31.12.2021 19:50 13,1 C 12,2 C 9,4 C 92 % 1021,7 hPa 0,0 l/m 0 min 0 min 0 W/m 19,3 km/h (3 Bft) 97,83 %
31.12.2021 19:52 13,1 C 12,2 C 9,4 C 93 % 1021,8 hPa 0,0 l/m 0 min 0 min 0 W/m 12,9 km/h (3 Bft) 97,87 %
31.12.2021 19:54 13,1 C 12,2 C 9,4 C 93 % 1021,8 hPa 0,0 l/m 0 min 0 min 0 W/m 25,7 km/h (4 Bft) 97,87 %
31.12.2021 19:56 13,1 C 12,2 C 9,4 C 93 % 1021,9 hPa 0,0 l/m 0 min 0 min 0 W/m 16,1 km/h (3 Bft) 95,74 %
31.12.2021 19:58 13,1 C 12,2 C 9,4 C 93 % 1021,9 hPa 0,0 l/m 0 min 0 min 0 W/m 16,1 km/h (3 Bft) 95,74 %
31.12.2021 20:00 13,1 C 12,2 C 9,4 C 93 % 1021,9 hPa 0,0 l/m 0 min 0 min 0 W/m 16,1 km/h (3 Bft) 97,87 %
31.12.2021 20:02 13,1 C 12,2 C 9,4 C 93 % 1021,9 hPa 0,0 l/m 0 min 0 min 0 W/m 12,9 km/h (3 Bft) 95,65 %
31.12.2021 20:04 13,1 C 12,2 C 9,4 C 93 % 1021,8 hPa 0,0 l/m 0 min 0 min 0 W/m 16,1 km/h (3 Bft) 97,87 %
31.12.2021 20:06 13,1 C 12,2 C 9,4 C 93 % 1021,9 hPa 0,0 l/m 0 min 0 min 0 W/m 12,9 km/h (3 Bft) 95,74 %
31.12.2021 20:08 13,1 C 12,2 C 9,4 C 93 % 1022,0 hPa 0,0 l/m 0 min 0 min 0 W/m 12,9 km/h (3 Bft) 97,87 %
31.12.2021 20:10 13,1 C 12,2 C 9,4 C 92 % 1022,0 hPa 0,0 l/m 0 min 0 min 0 W/m 6,4 km/h (2 Bft) 95,74 %
31.12.2021 20:12 13,1 C 12,2 C 9,4 C 92 % 1021,9 hPa 0,0 l/m 0 min 0 min 0 W/m 19,3 km/h (3 Bft) 95,65 %
31.12.2021 20:14 13,1 C 12,2 C 9,4 C 92 % 1022,0 hPa 0,0 l/m 0 min 0 min 0 W/m 12,9 km/h (3 Bft) 97,87 %
31.12.2021 20:16 13,1 C 12,2 C 9,4 C 92 % 1022,0 hPa 0,0 l/m 0 min 0 min 0 W/m 22,5 km/h (4 Bft) 93,62 %
31.12.2021 20:18 13,1 C 12,2 C 9,4 C 93 % 1022,0 hPa 0,0 l/m 0 min 0 min 0 W/m 19,3 km/h (3 Bft) 95,74 %
31.12.2021 20:20 13,1 C 12,2 C 9,4 C 93 % 1022,1 hPa 0,0 l/m 0 min 0 min 0 W/m 16,1 km/h (3 Bft) 97,87 %
31.12.2021 20:22 13,1 C 12,2 C 9,4 C 92 % 1022,1 hPa 0,0 l/m 0 min 0 min 0 W/m 22,5 km/h (4 Bft) 97,87 %
31.12.2021 20:24 13,1 C 12,2 C 9,4 C 92 % 1022,1 hPa 0,0 l/m 0 min 0 min 0 W/m 19,3 km/h (3 Bft) 97,87 %
31.12.2021 20:26 13,1 C 12,2 C 9,4 C 92 % 1022,1 hPa 0,0 l/m 0 min 0 min 0 W/m 16,1 km/h (3 Bft) 93,48 %
31.12.2021 20:28 13,1 C 12,2 C 9,4 C 92 % 1022,1 hPa 0,0 l/m 0 min 0 min 0 W/m 12,9 km/h (3 Bft) 95,74 %
31.12.2021 20:30 13,1 C 12,2 C 9,4 C 92 % 1022,2 hPa 0,0 l/m 0 min 0 min 0 W/m 16,1 km/h (3 Bft) 95,74 %
31.12.2021 20:32 13,1 C 12,2 C 9,4 C 93 % 1022,2 hPa 0,0 l/m 0 min 0 min 0 W/m 19,3 km/h (3 Bft) 95,74 %
31.12.2021 20:34 13,1 C 12,2 C 9,4 C 93 % 1022,1 hPa 0,0 l/m 0 min 0 min 0 W/m 16,1 km/h (3 Bft) 97,87 %
31.12.2021 20:36 13,1 C 12,2 C 9,4 C 93 % 1022,2 hPa 0,0 l/m 0 min 0 min 0 W/m 22,5 km/h (4 Bft) 95,65 %
31.12.2021 20:38 13,1 C 12,2 C 9,4 C 93 % 1022,2 hPa 0,0 l/m 0 min 0 min 0 W/m 12,9 km/h (3 Bft) 95,74 %
31.12.2021 20:40 13,1 C 12,2 C 9,4 C 93 % 1022,3 hPa 0,0 l/m 0 min 0 min 0 W/m 22,5 km/h (4 Bft) 93,62 %
31.12.2021 20:42 13,1 C 12,2 C 9,4 C 93 % 1022,3 hPa 0,0 l/m 0 min 0 min 0 W/m 12,9 km/h (3 Bft) 97,87 %
31.12.2021 20:44 13,1 C 12,2 C 9,4 C 93 % 1022,4 hPa 0,0 l/m 0 min 0 min 0 W/m 22,5 km/h (4 Bft) 95,74 %
31.12.2021 20:46 13,1 C 12,2 C 9,4 C 93 % 1022,4 hPa 0,0 l/m 0 min 0 min 0 W/m 19,3 km/h (3 Bft) 97,87 %
31.12.2021 20:48 13,2 C 12,2 C 9,4 C 92 % 1022,4 hPa 0,0 l/m 0 min 0 min 0 W/m 16,1 km/h (3 Bft) 97,83 %
31.12.2021 20:50 13,2 C 12,2 C 9,4 C 92 % 1022,4 hPa 0,0 l/m 0 min 0 min 0 W/m 12,9 km/h (3 Bft) 95,74 %
31.12.2021 20:52 13,2 C 12,2 C 9,4 C 92 % 1022,4 hPa 0,0 l/m 0 min 0 min 0 W/m 25,7 km/h (4 Bft) 97,87 %
31.12.2021 20:54 13,2 C 12,2 C 9,4 C 92 % 1022,5 hPa 0,0 l/m 0 min 0 min 0 W/m 16,1 km/h (3 Bft) 95,74 %
31.12.2021 20:56 13,1 C 12,2 C 9,4 C 92 % 1022,5 hPa 0,0 l/m 0 min 0 min 0 W/m 16,1 km/h (3 Bft) 97,87 %
31.12.2021 20:58 13,1 C 12,2 C 9,4 C 92 % 1022,5 hPa 0,0 l/m 0 min 0 min 0 W/m 9,7 km/h (2 Bft) 97,87 %
31.12.2021 21:00 13,1 C 12,2 C 9,4 C 92 % 1022,6 hPa 0,0 l/m 0 min 0 min 0 W/m 16,1 km/h (3 Bft) 95,65 %
31.12.2021 21:02 13,1 C 12,2 C 9,4 C 92 % 1022,4 hPa 0,0 l/m 0 min 0 min 0 W/m 19,3 km/h (3 Bft) 95,74 %
31.12.2021 21:04 13,1 C 12,2 C 9,4 C 92 % 1022,5 hPa 0,0 l/m 0 min 0 min 0 W/m 22,5 km/h (4 Bft) 95,74 %
31.12.2021 21:06 13,2 C 12,2 C 9,4 C 92 % 1022,5 hPa 0,0 l/m 0 min 0 min 0 W/m 19,3 km/h (3 Bft) 95,74 %
31.12.2021 21:08 13,2 C 12,2 C 9,4 C 92 % 1022,5 hPa 0,0 l/m 0 min 0 min 0 W/m 22,5 km/h (4 Bft) 93,62 %
31.12.2021 21:10 13,2 C 12,2 C 9,4 C 92 % 1022,5 hPa 0,0 l/m 0 min 0 min 0 W/m 16,1 km/h (3 Bft) 97,87 %
31.12.2021 21:12 13,2 C 12,2 C 9,4 C 92 % 1022,5 hPa 0,0 l/m 0 min 0 min 0 W/m 6,4 km/h (2 Bft) 97,83 %
31.12.2021 21:14 13,1 C 12,2 C 9,4 C 92 % 1022,6 hPa 0,0 l/m 0 min 0 min 0 W/m 9,7 km/h (2 Bft) 97,87 %
31.12.2021 21:16 13,1 C 12,2 C 9,4 C 92 % 1022,6 hPa 0,0 l/m 0 min 0 min 0 W/m 12,9 km/h (3 Bft) 97,87 %
31.12.2021 21:18 13,1 C 12,2 C 9,4 C 92 % 1022,6 hPa 0,0 l/m 0 min 0 min 0 W/m 12,9 km/h (3 Bft) 97,87 %
31.12.2021 21:20 13,1 C 12,2 C 9,4 C 92 % 1022,6 hPa 0,0 l/m 0 min 0 min 0 W/m 12,9 km/h (3 Bft) 97,87 %
31.12.2021 21:22 13,1 C 12,2 C 9,4 C 92 % 1022,6 hPa 0,0 l/m 0 min 0 min 0 W/m 16,1 km/h (3 Bft) 97,87 %
31.12.2021 21:24 13,1 C 12,2 C 9,4 C 92 % 1022,6 hPa 0,0 l/m 0 min 0 min 0 W/m 16,1 km/h (3 Bft) 97,83 %
31.12.2021 21:26 13,1 C 12,2 C 9,4 C 92 % 1022,7 hPa 0,0 l/m 0 min 0 min 0 W/m 12,9 km/h (3 Bft) 97,87 %
31.12.2021 21:28 13,1 C 12,2 C 9,4 C 92 % 1022,7 hPa 0,0 l/m 0 min 0 min 0 W/m 6,4 km/h (2 Bft) 97,87 %
31.12.2021 21:30 13,1 C 12,2 C 9,4 C 92 % 1022,7 hPa 0,0 l/m 0 min 0 min 0 W/m 16,1 km/h (3 Bft) 76,60 %
31.12.2021 21:32 13,1 C 12,2 C 9,4 C 92 % 1022,7 hPa 0,0 l/m 0 min 0 min 0 W/m 12,9 km/h (3 Bft) 72,50 %
31.12.2021 21:34 13,1 C 12,2 C 9,4 C 92 % 1022,8 hPa 0,0 l/m 0 min 0 min 0 W/m 12,9 km/h (3 Bft) 97,87 %
31.12.2021 21:36 13,1 C 12,2 C 9,4 C 93 % 1022,7 hPa 0,0 l/m 0 min 0 min 0 W/m 16,1 km/h (3 Bft) 97,83 %
31.12.2021 21:38 13,1 C 12,2 C 9,4 C 93 % 1022,7 hPa 0,0 l/m 0 min 0 min 0 W/m 16,1 km/h (3 Bft) 100,00 %
31.12.2021 21:40 13,1 C 12,2 C 9,4 C 92 % 1022,7 hPa 0,0 l/m 0 min 0 min 0 W/m 16,1 km/h (3 Bft) 100,00 %
31.12.2021 21:42 13,1 C 12,2 C 9,4 C 93 % 1022,7 hPa 0,0 l/m 0 min 0 min 0 W/m 16,1 km/h (3 Bft) 97,87 %
31.12.2021 21:44 13,1 C 12,2 C 9,4 C 93 % 1022,7 hPa 0,0 l/m 0 min 0 min 0 W/m 12,9 km/h (3 Bft) 100,00 %
31.12.2021 21:46 13,1 C 12,2 C 9,4 C 93 % 1022,7 hPa 0,0 l/m 0 min 0 min 0 W/m 12,9 km/h (3 Bft) 97,87 %
31.12.2021 21:48 13,1 C 12,2 C 9,4 C 93 % 1022,7 hPa 0,0 l/m 0 min 0 min 0 W/m 6,4 km/h (2 Bft) 97,83 %
31.12.2021 21:50 13,0 C 12,2 C 9,4 C 93 % 1022,8 hPa 0,0 l/m 0 min 0 min 0 W/m 12,9 km/h (3 Bft) 100,00 %
31.12.2021 21:52 13,0 C 12,2 C 9,4 C 93 % 1022,7 hPa 0,0 l/m 0 min 0 min 0 W/m 22,5 km/h (4 Bft) 97,87 %
31.12.2021 21:54 13,0 C 12,2 C 9,4 C 93 % 1022,7 hPa 0,0 l/m 0 min 0 min 0 W/m 16,1 km/h (3 Bft) 97,87 %
31.12.2021 21:56 13,0 C 12,2 C 9,4 C 93 % 1022,8 hPa 0,0 l/m 0 min 0 min 0 W/m 16,1 km/h (3 Bft) 100,00 %
31.12.2021 21:58 13,0 C 12,2 C 9,4 C 93 % 1022,8 hPa 0,0 l/m 0 min 0 min 0 W/m 12,9 km/h (3 Bft) 100,00 %
31.12.2021 22:00 13,0 C 12,2 C 9,4 C 93 % 1022,8 hPa 0,0 l/m 0 min 0 min 0 W/m 25,7 km/h (4 Bft) 100,00 %
31.12.2021 22:02 13,0 C 12,2 C 9,4 C 93 % 1022,8 hPa 0,0 l/m 0 min 0 min 0 W/m 12,9 km/h (3 Bft) 100,00 %
31.12.2021 22:04 13,0 C 12,2 C 9,4 C 93 % 1022,8 hPa 0,0 l/m 0 min 0 min 0 W/m 19,3 km/h (3 Bft) 100,00 %
31.12.2021 22:06 13,0 C 12,2 C 9,4 C 93 % 1022,8 hPa 0,0 l/m 0 min 0 min 0 W/m 16,1 km/h (3 Bft) 100,00 %
31.12.2021 22:08 12,9 C 12,2 C 9,4 C 94 % 1022,8 hPa 0,0 l/m 0 min 0 min 0 W/m 19,3 km/h (3 Bft) 100,00 %
31.12.2021 22:10 12,9 C 12,2 C 9,4 C 94 % 1022,8 hPa 0,0 l/m 0 min 0 min 0 W/m 22,5 km/h (4 Bft) 100,00 %
31.12.2021 22:12 13,0 C 12,2 C 9,4 C 94 % 1022,8 hPa 0,0 l/m 0 min 0 min 0 W/m 9,7 km/h (2 Bft) 97,87 %
31.12.2021 22:14 13,0 C 12,2 C 9,4 C 94 % 1022,9 hPa 0,0 l/m 0 min 0 min 0 W/m 12,9 km/h (3 Bft) 100,00 %
31.12.2021 22:16 12,9 C 12,2 C 9,4 C 94 % 1022,9 hPa 0,0 l/m 0 min 0 min 0 W/m 12,9 km/h (3 Bft) 100,00 %
31.12.2021 22:18 12,9 C 12,2 C 9,4 C 94 % 1022,8 hPa 0,0 l/m 0 min 0 min 0 W/m 12,9 km/h (3 Bft) 100,00 %
31.12.2021 22:20 12,9 C 12,2 C 9,4 C 94 % 1022,9 hPa 0,0 l/m 0 min 0 min 0 W/m 12,9 km/h (3 Bft) 100,00 %
31.12.2021 22:22 12,9 C 12,2 C 9,4 C 94 % 1022,9 hPa 0,0 l/m 0 min 0 min 0 W/m 12,9 km/h (3 Bft) 100,00 %
31.12.2021 22:24 12,9 C 12,2 C 9,4 C 94 % 1022,9 hPa 0,0 l/m 0 min 0 min 0 W/m 19,3 km/h (3 Bft) 100,00 %
31.12.2021 22:26 12,9 C 12,2 C 9,4 C 94 % 1022,9 hPa 0,0 l/m 0 min 0 min 0 W/m 12,9 km/h (3 Bft) 100,00 %
31.12.2021 22:28 12,9 C 12,2 C 9,4 C 94 % 1022,9 hPa 0,0 l/m 0 min 0 min 0 W/m 9,7 km/h (2 Bft) 100,00 %
31.12.2021 22:30 12,9 C 12,2 C 9,4 C 94 % 1023,0 hPa 0,0 l/m 0 min 0 min 0 W/m 19,3 km/h (3 Bft) 97,87 %
31.12.2021 22:32 12,9 C 12,2 C 9,4 C 94 % 1023,1 hPa 0,0 l/m 0 min 0 min 0 W/m 12,9 km/h (3 Bft) 100,00 %
31.12.2021 22:34 12,9 C 12,2 C 9,4 C 94 % 1023,1 hPa 0,0 l/m 0 min 0 min 0 W/m 3,2 km/h (1 Bft) 97,83 %
31.12.2021 22:36 12,9 C 12,2 C 9,4 C 94 % 1023,1 hPa 0,0 l/m 0 min 0 min 0 W/m 12,9 km/h (3 Bft) 95,74 %
31.12.2021 22:38 12,9 C 12,2 C 9,4 C 94 % 1023,1 hPa 0,0 l/m 0 min 0 min 0 W/m 12,9 km/h (3 Bft) 95,74 %
31.12.2021 22:40 12,9 C 12,2 C 9,4 C 94 % 1023,2 hPa 0,0 l/m 0 min 0 min 0 W/m 6,4 km/h (2 Bft) 95,74 %
31.12.2021 22:42 12,9 C 12,2 C 9,4 C 94 % 1023,2 hPa 0,0 l/m 0 min 0 min 0 W/m 6,4 km/h (2 Bft) 95,74 %
31.12.2021 22:44 12,9 C 12,2 C 9,4 C 94 % 1023,3 hPa 0,0 l/m 0 min 0 min 0 W/m 19,3 km/h (3 Bft) 97,87 %
31.12.2021 22:46 12,9 C 12,2 C 9,4 C 94 % 1023,3 hPa 0,0 l/m 0 min 0 min 0 W/m 9,7 km/h (2 Bft) 95,65 %
31.12.2021 22:48 12,9 C 12,2 C 9,4 C 94 % 1023,3 hPa 0,0 l/m 0 min 0 min 0 W/m 12,9 km/h (3 Bft) 95,74 %
31.12.2021 22:50 12,9 C 12,2 C 9,4 C 94 % 1023,3 hPa 0,0 l/m 0 min 0 min 0 W/m 9,7 km/h (2 Bft) 97,87 %
31.12.2021 22:52 12,9 C 12,2 C 9,4 C 94 % 1023,3 hPa 0,0 l/m 0 min 0 min 0 W/m 6,4 km/h (2 Bft) 93,62 %
31.12.2021 22:54 12,9 C 12,2 C 9,4 C 94 % 1023,3 hPa 0,0 l/m 0 min 0 min 0 W/m 12,9 km/h (3 Bft) 95,74 %
31.12.2021 22:56 12,9 C 12,2 C 9,4 C 94 % 1023,3 hPa 0,0 l/m 0 min 0 min 0 W/m 12,9 km/h (3 Bft) 95,74 %
31.12.2021 22:58 12,9 C 12,2 C 9,4 C 94 % 1023,4 hPa 0,0 l/m 0 min 0 min 0 W/m 16,1 km/h (3 Bft) 97,83 %
31.12.2021 23:00 12,9 C 12,2 C 9,4 C 94 % 1023,4 hPa 0,0 l/m 0 min 0 min 0 W/m 16,1 km/h (3 Bft) 95,74 %
31.12.2021 23:02 12,9 C 12,2 C 9,4 C 94 % 1023,5 hPa 0,0 l/m 0 min 0 min 0 W/m 12,9 km/h (3 Bft) 91,49 %
31.12.2021 23:04 12,9 C 12,2 C 9,4 C 94 % 1023,4 hPa 0,0 l/m 0 min 0 min 0 W/m 16,1 km/h (3 Bft) 95,74 %
31.12.2021 23:06 12,9 C 12,2 C 9,4 C 94 % 1023,5 hPa 0,0 l/m 0 min 0 min 0 W/m 12,9 km/h (3 Bft) 95,74 %
31.12.2021 23:08 12,9 C 12,2 C 9,4 C 94 % 1023,5 hPa 0,0 l/m 0 min 0 min 0 W/m 12,9 km/h (3 Bft) 95,74 %
31.12.2021 23:10 12,9 C 12,2 C 9,4 C 94 % 1023,5 hPa 0,0 l/m 0 min 0 min 0 W/m 6,4 km/h (2 Bft) 91,30 %
31.12.2021 23:12 12,9 C 12,2 C 9,4 C 94 % 1023,6 hPa 0,0 l/m 0 min 0 min 0 W/m 12,9 km/h (3 Bft) 89,36 %
31.12.2021 23:14 12,9 C 12,2 C 9,4 C 94 % 1023,6 hPa 0,0 l/m 0 min 0 min 0 W/m 6,4 km/h (2 Bft) 93,62 %
31.12.2021 23:16 12,9 C 12,2 C 9,4 C 94 % 1023,6 hPa 0,0 l/m 0 min 0 min 0 W/m 22,5 km/h (4 Bft) 91,49 %
31.12.2021 23:18 12,9 C 12,2 C 9,4 C 93 % 1023,7 hPa 0,0 l/m 0 min 0 min 0 W/m 16,1 km/h (3 Bft) 93,88 %
31.12.2021 23:20 12,9 C 12,2 C 9,4 C 93 % 1023,7 hPa 0,0 l/m 0 min 0 min 0 W/m 19,3 km/h (3 Bft) 95,65 %
31.12.2021 23:22 12,9 C 12,2 C 9,4 C 93 % 1023,7 hPa 0,0 l/m 0 min 0 min 0 W/m 19,3 km/h (3 Bft) 91,49 %
31.12.2021 23:24 12,9 C 12,2 C 9,4 C 93 % 1023,7 hPa 0,0 l/m 0 min 0 min 0 W/m 16,1 km/h (3 Bft) 95,74 %
31.12.2021 23:26 12,9 C 12,2 C 9,4 C 93 % 1023,8 hPa 0,0 l/m 0 min 0 min 0 W/m 12,9 km/h (3 Bft) 95,74 %
31.12.2021 23:28 13,0 C 12,2 C 9,4 C 93 % 1023,7 hPa 0,0 l/m 0 min 0 min 0 W/m 12,9 km/h (3 Bft) 95,74 %
31.12.2021 23:30 12,9 C 12,2 C 9,4 C 93 % 1023,7 hPa 0,0 l/m 0 min 0 min 0 W/m 19,3 km/h (3 Bft) 93,62 %
31.12.2021 23:32 13,0 C 12,2 C 9,4 C 93 % 1023,7 hPa 0,0 l/m 0 min 0 min 0 W/m 9,7 km/h (2 Bft) 95,65 %
31.12.2021 23:34 13,0 C 12,2 C 9,4 C 93 % 1023,8 hPa 0,0 l/m 0 min 0 min 0 W/m 22,5 km/h (4 Bft) 97,87 %
31.12.2021 23:36 13,0 C 12,2 C 9,4 C 93 % 1023,8 hPa 0,0 l/m 0 min 0 min 0 W/m 16,1 km/h (3 Bft) 95,74 %
31.12.2021 23:38 13,0 C 12,2 C 9,4 C 93 % 1023,7 hPa 0,0 l/m 0 min 0 min 0 W/m 12,9 km/h (3 Bft) 97,87 %
31.12.2021 23:40 13,0 C 12,2 C 9,4 C 93 % 1023,7 hPa 0,0 l/m 0 min 0 min 0 W/m 12,9 km/h (3 Bft) 93,62 %
31.12.2021 23:42 13,0 C 12,2 C 9,4 C 93 % 1023,8 hPa 0,0 l/m 0 min 0 min 0 W/m 12,9 km/h (3 Bft) 95,74 %
31.12.2021 23:44 13,0 C 12,2 C 9,4 C 93 % 1023,8 hPa 0,0 l/m 0 min 0 min 0 W/m 6,4 km/h (2 Bft) 97,83 %
31.12.2021 23:46 12,9 C 12,2 C 9,4 C 93 % 1023,8 hPa 0,0 l/m 0 min 0 min 0 W/m 16,1 km/h (3 Bft) 97,87 %
31.12.2021 23:48 12,9 C 12,2 C 9,4 C 93 % 1023,8 hPa 0,0 l/m 0 min 0 min 0 W/m 9,7 km/h (2 Bft) 97,87 %
31.12.2021 23:50 12,9 C 12,2 C 9,4 C 93 % 1023,8 hPa 0,0 l/m 0 min 0 min 0 W/m 9,7 km/h (2 Bft) 97,87 %
31.12.2021 23:52 12,9 C 12,2 C 9,4 C 93 % 1023,8 hPa 0,0 l/m 0 min 0 min 0 W/m 12,9 km/h (3 Bft) 95,74 %
31.12.2021 23:54 13,0 C 12,2 C 9,4 C 93 % 1023,8 hPa 0,0 l/m 0 min 0 min 0 W/m 16,1 km/h (3 Bft) 100,00 %
31.12.2021 23:56 13,0 C 12,2 C 9,4 C 93 % 1023,8 hPa 0,0 l/m 0 min 0 min 0 W/m 16,1 km/h (3 Bft) 100,00 %
31.12.2021 23:58 13,0 C 12,2 C 9,4 C 93 % 1023,8 hPa 0,0 l/m 0 min 0 min 0 W/m 12,9 km/h (3 Bft) 100,00 %
_ Min-Zeit 09:14 08:00 08:36 13:00 13:52 - - - - 22:34 18:42
Minimum _ 12,2 C 11,7 C 8,9 C 84 % 1017,4 hPa - - - - 3,2 km/h (1 Bft) 52,38 %
_ Max-Zeit 14:58 12:58 00:32 00:00 23:26 00:00 14:48 00:00 12:58 14:02 00:00
Maximum _ 14,3 C 17,2 C 11,1 C 96 % 1023,8 hPa 0,0 l/m 3 min 0 min 325 W/m 38,6 km/h
SW (5 Bft)
100,00 %
Durchschnitt _ 13,3 C 12,6 C 9,9 C 89 % 1019,7 hPa #0,0 l/m #1:00 h #0 min. 73 W/m 17,7 km/h (3 Bft) 97,30 %
© 2022 W. Hausmann